Time,TemperatureF,DewpointF,PressureIn,WindDirection,WindDirectionDegrees,WindSpeedMPH,WindSpeedGustMPH,Humidity,HourlyPrecipIn,Conditions,Clouds,dailyrainin,SoftwareType,DateUTC
2013-04-23 00:01:00,45.7,35.0,26.49,East,79,2.0,12.0,66,0.00,,,0.00,VWS V13.01,2013-04-23 04:01:00,
2013-04-23 00:06:00,45.7,34.6,26.49,ENE,61,5.0,7.0,65,0.00,,,0.00,VWS V13.01,2013-04-23 04:06:00,
2013-04-23 00:11:00,45.6,34.5,27.39,East,84,3.0,7.0,65,0.00,,,0.00,VWS V13.01,2013-04-23 04:11:00,
2013-04-23 00:13:00,45.6,34.5,27.39,East,91,4.0,10.0,65,0.00,,,0.00,VWS V13.01,2013-04-23 04:13:00,
2013-04-23 00:16:00,45.5,34.0,26.98,East,91,1.0,10.0,64,0.00,,,0.00,VWS V13.01,2013-04-23 04:16:00,
2013-04-23 00:18:00,45.5,34.4,26.65,ENE,76,0.0,10.0,65,0.00,,,0.00,VWS V13.01,2013-04-23 04:18:00,
2013-04-23 00:21:00,45.4,34.3,26.98,ENE,67,0.0,10.0,65,0.00,,,0.00,VWS V13.01,2013-04-23 04:21:00,
2013-04-23 00:22:00,45.4,34.3,26.98,ENE,67,0.0,10.0,65,0.00,,,0.00,VWS V13.01,2013-04-23 04:22:00,
2013-04-23 00:23:00,45.4,34.3,26.98,ENE,67,0.0,10.0,65,0.00,,,0.00,VWS V13.01,2013-04-23 04:23:00,
2013-04-23 00:26:00,45.4,34.3,26.98,East,80,0.0,10.0,65,0.00,,,0.00,VWS V13.01,2013-04-23 04:26:00,
2013-04-23 00:27:00,45.3,34.2,26.98,East,80,0.0,10.0,65,0.00,,,0.00,VWS V13.01,2013-04-23 04:27:00,
2013-04-23 00:28:00,45.3,34.2,26.98,East,79,0.0,10.0,65,0.00,,,0.00,VWS V13.01,2013-04-23 04:28:00,
2013-04-23 00:31:00,45.3,34.2,26.98,NNE,26,5.0,10.0,65,0.00,,,0.00,VWS V13.01,2013-04-23 04:31:00,
2013-04-23 00:32:00,45.3,34.2,26.98,ENE,57,5.0,10.0,65,0.00,,,0.00,VWS V13.01,2013-04-23 04:32:00,
2013-04-23 00:33:00,45.3,34.2,26.98,East,91,8.0,10.0,65,0.00,,,0.00,VWS V13.01,2013-04-23 04:33:00,
2013-04-23 00:37:00,45.3,34.2,26.98,ESE,109,1.0,10.0,65,0.00,,,0.00,VWS V13.01,2013-04-23 04:37:00,
2013-04-23 00:38:00,45.3,34.2,26.98,NE,36,0.0,10.0,65,0.00,,,0.00,VWS V13.01,2013-04-23 04:38:00,
2013-04-23 00:42:00,45.2,34.2,26.98,NE,42,0.0,10.0,65,0.00,,,0.00,VWS V13.01,2013-04-23 04:42:00,
2013-04-23 00:43:00,45.2,34.2,26.98,NE,54,5.0,10.0,65,0.00,,,0.00,VWS V13.01,2013-04-23 04:43:00,
2013-04-23 00:47:00,45.3,34.2,26.98,East,84,2.0,10.0,65,0.00,,,0.00,VWS V13.01,2013-04-23 04:47:00,
2013-04-23 00:48:00,45.3,34.2,26.98,East,83,1.0,10.0,65,0.00,,,0.00,VWS V13.01,2013-04-23 04:48:00,
2013-04-23 00:52:00,45.3,34.6,26.98,ESE,109,5.0,10.0,66,0.00,,,0.00,VWS V13.01,2013-04-23 04:52:00,
2013-04-23 00:53:00,45.2,34.5,26.98,ENE,76,5.0,10.0,66,0.00,,,0.00,VWS V13.01,2013-04-23 04:53:00,
2013-04-23 00:57:00,45.2,34.5,26.98,ENE,74,6.0,10.0,66,0.00,,,0.00,VWS V13.01,2013-04-23 04:57:00,
2013-04-23 00:58:00,45.2,34.5,26.98,ENE,74,0.0,10.0,66,0.00,,,0.00,VWS V13.01,2013-04-23 04:58:00,
2013-04-23 00:59:00,45.2,34.5,26.98,ENE,74,2.0,10.0,66,0.00,,,0.00,VWS V13.01,2013-04-23 04:59:00,
2013-04-23 01:02:00,45.1,34.4,26.98,ENE,75,6.0,10.0,66,0.00,,,0.00,VWS V13.01,2013-04-23 05:02:00,
2013-04-23 01:03:00,45.1,34.4,26.98,ENE,73,6.0,10.0,66,0.00,,,0.00,VWS V13.01,2013-04-23 05:03:00,
2013-04-23 01:04:00,45.1,34.4,26.98,East,96,6.0,7.0,66,0.00,,,0.00,VWS V13.01,2013-04-23 05:04:00,
2013-04-23 01:07:00,45.0,34.3,26.98,East,101,0.0,8.0,66,0.00,,,0.00,VWS V13.01,2013-04-23 05:07:00,
2013-04-23 01:08:00,45.0,34.3,26.98,East,101,0.0,8.0,66,0.00,,,0.00,VWS V13.01,2013-04-23 05:08:00,
2013-04-23 01:09:00,45.0,34.3,26.98,East,96,5.0,8.0,66,0.00,,,0.00,VWS V13.01,2013-04-23 05:09:00,
2013-04-23 01:12:00,45.0,34.3,26.84,ENE,59,0.0,8.0,66,0.00,,,0.00,VWS V13.01,2013-04-23 05:12:00,
2013-04-23 01:13:00,45.0,34.7,26.82,ENE,59,0.0,8.0,67,0.00,,,0.00,VWS V13.01,2013-04-23 05:13:00,
2013-04-23 01:14:00,45.0,34.7,26.84,ENE,59,0.0,8.0,67,0.00,,,0.00,VWS V13.01,2013-04-23 05:14:00,
2013-04-23 01:17:00,45.0,34.7,26.66,ENE,59,4.0,8.0,67,0.00,,,0.00,VWS V13.01,2013-04-23 05:17:00,
2013-04-23 01:18:00,45.0,34.7,26.66,ENE,59,0.0,8.0,67,0.00,,,0.00,VWS V13.01,2013-04-23 05:18:00,
2013-04-23 01:20:00,45.0,34.7,26.66,ENE,59,0.0,8.0,67,0.00,,,0.00,VWS V13.01,2013-04-23 05:20:00,
2013-04-23 01:22:00,45.0,34.7,26.66,ENE,59,0.0,8.0,67,0.00,,,0.00,VWS V13.01,2013-04-23 05:22:00,
2013-04-23 01:23:00,45.0,35.1,26.66,ENE,59,0.0,8.0,68,0.00,,,0.00,VWS V13.01,2013-04-23 05:23:00,
2013-04-23 01:25:00,45.0,34.7,26.66,ENE,59,0.0,8.0,67,0.00,,,0.00,VWS V13.01,2013-04-23 05:25:00,
2013-04-23 01:27:00,45.0,34.7,26.66,ENE,59,0.0,8.0,67,0.00,,,0.00,VWS V13.01,2013-04-23 05:27:00,
2013-04-23 01:28:00,45.0,34.7,26.66,ENE,59,0.0,8.0,67,0.00,,,0.00,VWS V13.01,2013-04-23 05:28:00,
2013-04-23 01:29:00,44.9,35.0,26.66,NE,39,2.0,8.0,68,0.00,,,0.00,VWS V13.01,2013-04-23 05:29:00,
2013-04-23 01:30:00,44.9,34.6,26.66,NE,39,0.0,8.0,67,0.00,,,0.00,VWS V13.01,2013-04-23 05:30:00,
2013-04-23 01:32:00,44.9,35.0,26.66,ENE,60,0.0,8.0,68,0.00,,,0.00,VWS V13.01,2013-04-23 05:32:00,
2013-04-23 01:33:00,44.9,35.0,26.66,ENE,60,0.0,8.0,68,0.00,,,0.00,VWS V13.01,2013-04-23 05:33:00,
2013-04-23 01:34:00,44.9,35.0,26.66,ENE,60,0.0,8.0,68,0.00,,,0.00,VWS V13.01,2013-04-23 05:34:00,
2013-04-23 01:35:00,44.9,35.0,26.66,ENE,60,0.0,8.0,68,0.00,,,0.00,VWS V13.01,2013-04-23 05:35:00,
2013-04-23 01:37:00,44.9,35.0,26.50,ENE,60,0.0,8.0,68,0.00,,,0.00,VWS V13.01,2013-04-23 05:37:00,
2013-04-23 01:38:00,44.9,35.0,26.50,ESE,103,3.0,8.0,68,0.00,,,0.00,VWS V13.01,2013-04-23 05:38:00,
2013-04-23 01:39:00,44.9,35.0,26.50,NE,46,4.0,8.0,68,0.00,,,0.00,VWS V13.01,2013-04-23 05:39:00,
2013-04-23 01:40:00,44.9,35.0,26.50,ENE,70,6.0,8.0,68,0.00,,,0.00,VWS V13.01,2013-04-23 05:40:00,
2013-04-23 01:43:00,44.8,34.9,26.50,NE,46,0.0,8.0,68,0.00,,,0.00,VWS V13.01,2013-04-23 05:43:00,
2013-04-23 01:44:00,44.8,34.9,26.50,NNE,26,2.0,8.0,68,0.00,,,0.00,VWS V13.01,2013-04-23 05:44:00,
2013-04-23 01:46:00,44.7,34.8,26.50,North,349,0.0,8.0,68,0.00,,,0.00,VWS V13.01,2013-04-23 05:46:00,
2013-04-23 01:48:00,44.7,34.8,26.50,NNE,15,1.0,8.0,68,0.00,,,0.00,VWS V13.01,2013-04-23 05:48:00,
2013-04-23 01:49:00,44.7,34.8,27.27,ENE,65,0.0,8.0,68,0.00,,,0.00,VWS V13.01,2013-04-23 05:49:00,
2013-04-23 01:51:00,44.6,34.7,27.27,ENE,65,0.0,8.0,68,0.00,,,0.00,VWS V13.01,2013-04-23 05:51:00,
2013-04-23 01:53:00,44.6,34.7,27.27,ENE,65,0.0,8.0,68,0.00,,,0.00,VWS V13.01,2013-04-23 05:53:00,
2013-04-23 01:55:00,44.5,34.6,27.27,ENE,65,0.0,8.0,68,0.00,,,0.00,VWS V13.01,2013-04-23 05:55:00,
2013-04-23 01:57:00,44.5,34.6,27.27,ENE,65,2.0,8.0,68,0.00,,,0.00,VWS V13.01,2013-04-23 05:57:00,
2013-04-23 01:58:00,44.5,35.0,27.27,ENE,65,2.0,8.0,69,0.00,,,0.00,VWS V13.01,2013-04-23 05:58:00,
2013-04-23 02:00:00,44.4,34.9,27.27,ENE,65,0.0,8.0,69,0.00,,,0.00,VWS V13.01,2013-04-23 06:00:00,
2013-04-23 02:02:00,44.3,34.8,27.27,NE,38,2.0,8.0,69,0.00,,,0.00,VWS V13.01,2013-04-23 06:02:00,
2013-04-23 02:03:00,44.3,34.8,27.27,NE,38,1.0,8.0,69,0.00,,,0.00,VWS V13.01,2013-04-23 06:03:00,
2013-04-23 02:05:00,44.3,34.8,27.27,East,100,2.0,5.0,69,0.00,,,0.00,VWS V13.01,2013-04-23 06:05:00,
2013-04-23 02:07:00,44.3,34.8,27.27,NNE,27,4.0,7.0,69,0.00,,,0.00,VWS V13.01,2013-04-23 06:07:00,
2013-04-23 02:08:00,44.2,34.7,27.27,East,85,0.0,7.0,69,0.00,,,0.00,VWS V13.01,2013-04-23 06:08:00,
2013-04-23 02:09:00,44.2,34.7,27.27,East,85,0.0,7.0,69,0.00,,,0.00,VWS V13.01,2013-04-23 06:09:00,
2013-04-23 02:10:00,44.2,34.7,27.27,NE,56,3.0,7.0,69,0.00,,,0.00,VWS V13.01,2013-04-23 06:10:00,
2013-04-23 02:13:00,44.0,34.5,27.47,East,81,6.0,7.0,69,0.00,,,0.00,VWS V13.01,2013-04-23 06:13:00,
2013-04-23 02:14:00,44.0,34.5,27.47,ESE,110,5.0,8.0,69,0.00,,,0.00,VWS V13.01,2013-04-23 06:14:00,
2013-04-23 02:15:00,43.9,34.4,27.47,ENE,67,1.0,8.0,69,0.00,,,0.00,VWS V13.01,2013-04-23 06:15:00,
2013-04-23 02:18:00,43.8,34.3,27.47,ENE,75,4.0,9.0,69,0.00,,,0.00,VWS V13.01,2013-04-23 06:18:00,
2013-04-23 02:19:00,43.8,34.3,27.47,East,80,1.0,9.0,69,0.00,,,0.00,VWS V13.01,2013-04-23 06:19:00,
2013-04-23 02:20:00,43.7,34.2,27.47,NE,40,5.0,9.0,69,0.00,,,0.00,VWS V13.01,2013-04-23 06:20:00,
2013-04-23 02:21:00,43.7,34.2,27.47,ENE,71,4.0,9.0,69,0.00,,,0.00,VWS V13.01,2013-04-23 06:21:00,
2013-04-23 02:23:00,43.6,34.1,27.47,East,89,2.0,11.0,69,0.00,,,0.00,VWS V13.01,2013-04-23 06:23:00,
2013-04-23 02:24:00,43.5,34.0,27.47,NE,54,2.0,11.0,69,0.00,,,0.00,VWS V13.01,2013-04-23 06:24:00,
2013-04-23 02:25:00,43.4,33.9,27.39,NE,38,3.0,11.0,69,0.00,,,0.00,VWS V13.01,2013-04-23 06:25:00,
2013-04-23 02:26:00,43.4,33.9,27.39,NNE,32,4.0,11.0,69,0.00,,,0.00,VWS V13.01,2013-04-23 06:26:00,
2013-04-23 02:28:00,43.4,33.9,27.31,ENE,61,2.0,11.0,69,0.00,,,0.00,VWS V13.01,2013-04-23 06:28:00,
2013-04-23 02:29:00,43.3,33.8,27.31,ENE,72,2.0,11.0,69,0.00,,,0.00,VWS V13.01,2013-04-23 06:29:00,
2013-04-23 02:31:00,43.3,33.8,27.31,East,96,8.0,11.0,69,0.00,,,0.00,VWS V13.01,2013-04-23 06:31:00,
2013-04-23 02:33:00,43.2,34.1,27.32,ENE,59,1.0,11.0,70,0.00,,,0.00,VWS V13.01,2013-04-23 06:33:00,
2013-04-23 02:34:00,43.2,34.1,27.32,ENE,59,0.0,11.0,70,0.00,,,0.00,VWS V13.01,2013-04-23 06:34:00,
2013-04-23 02:36:00,43.1,34.0,27.32,East,97,0.0,11.0,70,0.00,,,0.00,VWS V13.01,2013-04-23 06:36:00,
2013-04-23 02:37:00,43.1,34.0,27.32,East,96,0.0,11.0,70,0.00,,,0.00,VWS V13.01,2013-04-23 06:37:00,
2013-04-23 02:38:00,43.1,34.0,27.32,East,87,5.0,11.0,70,0.00,,,0.00,VWS V13.01,2013-04-23 06:38:00,
2013-04-23 02:39:00,43.0,33.9,27.32,East,93,1.0,11.0,70,0.00,,,0.00,VWS V13.01,2013-04-23 06:39:00,
2013-04-23 02:41:00,43.0,33.9,26.92,East,88,3.0,11.0,70,0.00,,,0.00,VWS V13.01,2013-04-23 06:41:00,
2013-04-23 02:42:00,42.9,33.8,26.92,NW,311,0.0,11.0,70,0.00,,,0.00,VWS V13.01,2013-04-23 06:42:00,
2013-04-23 02:44:00,42.9,33.8,26.92,North,360,0.0,11.0,70,0.00,,,0.00,VWS V13.01,2013-04-23 06:44:00,
2013-04-23 02:46:00,42.9,34.2,26.92,East,86,0.0,11.0,71,0.00,,,0.00,VWS V13.01,2013-04-23 06:46:00,
2013-04-23 02:47:00,42.9,34.2,26.92,East,86,0.0,11.0,71,0.00,,,0.00,VWS V13.01,2013-04-23 06:47:00,
2013-04-23 02:49:00,42.9,34.2,26.83,East,86,2.0,11.0,71,0.00,,,0.00,VWS V13.01,2013-04-23 06:49:00,
2013-04-23 02:51:00,42.8,34.1,26.84,NE,56,2.0,11.0,71,0.00,,,0.00,VWS V13.01,2013-04-23 06:51:00,
2013-04-23 02:52:00,42.8,34.1,26.84,ENE,63,4.0,11.0,71,0.00,,,0.00,VWS V13.01,2013-04-23 06:52:00,
2013-04-23 02:54:00,42.8,34.1,26.84,ESE,113,5.0,11.0,71,0.00,,,0.00,VWS V13.01,2013-04-23 06:54:00,
2013-04-23 02:55:00,42.8,34.1,26.84,East,90,7.0,11.0,71,0.00,,,0.00,VWS V13.01,2013-04-23 06:55:00,
2013-04-23 02:57:00,42.8,34.1,26.84,East,93,0.0,11.0,71,0.00,,,0.00,VWS V13.01,2013-04-23 06:57:00,
2013-04-23 02:59:00,42.7,34.0,26.50,East,92,4.0,11.0,71,0.00,,,0.00,VWS V13.01,2013-04-23 06:59:00,
2013-04-23 03:00:00,42.7,34.0,26.51,East,92,0.0,11.0,71,0.00,,,0.00,VWS V13.01,2013-04-23 07:00:00,
2013-04-23 03:02:00,42.7,34.0,26.83,NE,55,0.0,11.0,71,0.00,,,0.00,VWS V13.01,2013-04-23 07:02:00,
2013-04-23 03:04:00,42.7,34.3,26.83,NE,55,2.0,2.0,72,0.00,,,0.00,VWS V13.01,2013-04-23 07:04:00,
2013-04-23 03:05:00,42.7,34.3,26.83,NE,55,3.0,3.0,72,0.00,,,0.00,VWS V13.01,2013-04-23 07:05:00,
2013-04-23 03:07:00,42.7,34.3,26.83,NE,55,0.0,3.0,72,0.00,,,0.00,VWS V13.01,2013-04-23 07:07:00,
2013-04-23 03:09:00,42.7,34.3,26.83,NE,55,0.0,3.0,72,0.00,,,0.00,VWS V13.01,2013-04-23 07:09:00,
2013-04-23 03:10:00,42.7,34.3,26.83,East,87,0.0,7.0,72,0.00,,,0.00,VWS V13.01,2013-04-23 07:10:00,
2013-04-23 03:12:00,42.7,34.3,26.83,East,86,5.0,7.0,72,0.00,,,0.00,VWS V13.01,2013-04-23 07:12:00,
2013-04-23 03:14:00,42.7,34.3,26.83,NE,41,0.0,7.0,72,0.00,,,0.00,VWS V13.01,2013-04-23 07:14:00,
2013-04-23 03:15:00,42.7,34.3,26.83,NE,41,0.0,7.0,72,0.00,,,0.00,VWS V13.01,2013-04-23 07:15:00,
2013-04-23 03:17:00,42.7,34.3,24.22,East,92,9.0,9.0,72,0.00,,,0.00,VWS V13.01,2013-04-23 07:17:00,
2013-04-23 03:18:00,42.7,34.3,24.22,East,92,9.0,9.0,72,0.00,,,0.00,VWS V13.01,2013-04-23 07:18:00,
2013-04-23 03:19:00,42.7,34.3,24.55,East,86,4.0,9.0,72,0.00,,,0.00,VWS V13.01,2013-04-23 07:19:00,
2013-04-23 03:20:00,42.7,34.3,24.54,ENE,78,4.0,10.0,72,0.00,,,0.00,VWS V13.01,2013-04-23 07:20:00,
2013-04-23 03:23:00,42.7,34.3,24.55,ENE,69,5.0,10.0,72,0.00,,,0.00,VWS V13.01,2013-04-23 07:23:00,
2013-04-23 03:24:00,42.7,34.3,24.55,NE,55,7.0,10.0,72,0.00,,,0.00,VWS V13.01,2013-04-23 07:24:00,
2013-04-23 03:25:00,42.7,34.3,24.55,East,80,0.0,10.0,72,0.00,,,0.00,VWS V13.01,2013-04-23 07:25:00,
2013-04-23 03:29:00,42.7,34.3,25.21,ENE,59,5.0,10.0,72,0.00,,,0.00,VWS V13.01,2013-04-23 07:29:00,
2013-04-23 03:30:00,42.7,34.3,25.21,NNE,30,0.0,10.0,72,0.00,,,0.00,VWS V13.01,2013-04-23 07:30:00,
2013-04-23 03:34:00,42.7,34.7,24.87,ESE,111,3.0,10.0,73,0.00,,,0.00,VWS V13.01,2013-04-23 07:34:00,
2013-04-23 03:35:00,42.7,34.7,24.87,NNE,25,0.0,10.0,73,0.00,,,0.00,VWS V13.01,2013-04-23 07:35:00,
2013-04-23 03:39:00,42.7,34.7,24.23,NE,42,0.0,10.0,73,0.00,,,0.00,VWS V13.01,2013-04-23 07:39:00,
2013-04-23 03:40:00,42.7,34.7,24.23,East,81,0.0,10.0,73,0.00,,,0.00,VWS V13.01,2013-04-23 07:40:00,
2013-04-23 03:41:00,42.8,34.8,24.23,SE,124,0.0,10.0,73,0.00,,,0.00,VWS V13.01,2013-04-23 07:41:00,
2013-04-23 03:44:00,42.8,34.8,24.22,SE,124,0.0,10.0,73,0.00,,,0.00,VWS V13.01,2013-04-23 07:44:00,
2013-04-23 03:45:00,42.8,34.8,24.22,SE,124,0.0,10.0,73,0.00,,,0.00,VWS V13.01,2013-04-23 07:45:00,
2013-04-23 03:46:00,42.8,34.8,24.23,NE,55,2.0,10.0,73,0.00,,,0.00,VWS V13.01,2013-04-23 07:46:00,
2013-04-23 03:49:00,42.8,34.8,24.23,East,87,0.0,10.0,73,0.00,,,0.00,VWS V13.01,2013-04-23 07:49:00,
2013-04-23 03:50:00,42.8,34.8,24.23,NNE,19,1.0,10.0,73,0.00,,,0.00,VWS V13.01,2013-04-23 07:50:00,
2013-04-23 03:52:00,42.8,34.8,24.23,NNE,20,0.0,10.0,73,0.00,,,0.00,VWS V13.01,2013-04-23 07:52:00,
2013-04-23 03:54:00,42.8,34.8,24.87,East,94,1.0,10.0,73,0.00,,,0.00,VWS V13.01,2013-04-23 07:54:00,
2013-04-23 03:55:00,42.8,34.8,24.87,East,94,0.0,10.0,73,0.00,,,0.00,VWS V13.01,2013-04-23 07:55:00,
2013-04-23 03:57:00,42.8,34.8,24.87,East,94,0.0,10.0,73,0.00,,,0.00,VWS V13.01,2013-04-23 07:57:00,
2013-04-23 04:00:00,42.7,34.7,24.87,NNE,26,1.0,10.0,73,0.00,,,0.00,VWS V13.01,2013-04-23 08:00:00,
2013-04-23 04:02:00,42.7,34.7,24.87,NE,34,2.0,11.0,73,0.00,,,0.00,VWS V13.01,2013-04-23 08:02:00,
2013-04-23 04:05:00,42.6,34.6,24.87,NE,52,0.0,3.0,73,0.00,,,0.00,VWS V13.01,2013-04-23 08:05:00,
2013-04-23 04:07:00,42.5,34.5,24.87,NE,52,3.0,3.0,73,0.00,,,0.00,VWS V13.01,2013-04-23 08:07:00,
2013-04-23 04:10:00,42.5,34.5,24.87,East,80,1.0,7.0,73,0.00,,,0.00,VWS V13.01,2013-04-23 08:10:00,
2013-04-23 04:11:00,42.5,34.5,24.87,East,80,0.0,7.0,73,0.00,,,0.00,VWS V13.01,2013-04-23 08:11:00,
2013-04-23 04:12:00,42.4,34.4,24.87,NE,38,0.0,7.0,73,0.00,,,0.00,VWS V13.01,2013-04-23 08:12:00,
2013-04-23 04:15:00,42.4,34.4,24.87,NE,48,0.0,7.0,73,0.00,,,0.00,VWS V13.01,2013-04-23 08:15:00,
2013-04-23 04:16:00,42.3,34.3,24.87,ENE,65,4.0,7.0,73,0.00,,,0.00,VWS V13.01,2013-04-23 08:16:00,
2013-04-23 04:17:00,42.3,34.3,24.87,ENE,65,0.0,7.0,73,0.00,,,0.00,VWS V13.01,2013-04-23 08:17:00,
2013-04-23 04:20:00,42.3,34.3,26.16,NNE,33,2.0,7.0,73,0.00,,,0.00,VWS V13.01,2013-04-23 08:20:00,
2013-04-23 04:21:00,42.2,34.2,26.16,NE,55,5.0,7.0,73,0.00,,,0.00,VWS V13.01,2013-04-23 08:21:00,
2013-04-23 04:23:00,42.2,34.2,26.16,NE,36,4.0,7.0,73,0.00,,,0.00,VWS V13.01,2013-04-23 08:23:00,
2013-04-23 04:25:00,42.2,34.2,26.16,East,83,1.0,7.0,73,0.00,,,0.00,VWS V13.01,2013-04-23 08:25:00,
2013-04-23 04:26:00,42.1,34.1,26.16,NE,49,2.0,7.0,73,0.00,,,0.00,VWS V13.01,2013-04-23 08:26:00,
2013-04-23 04:28:00,42.1,34.1,26.23,NE,51,4.0,7.0,73,0.00,,,0.00,VWS V13.01,2013-04-23 08:28:00,
2013-04-23 04:30:00,42.1,34.1,25.84,NE,36,0.0,7.0,73,0.00,,,0.00,VWS V13.01,2013-04-23 08:30:00,
2013-04-23 04:31:00,42.1,34.1,25.84,NE,36,0.0,7.0,73,0.00,,,0.00,VWS V13.01,2013-04-23 08:31:00,
2013-04-23 04:33:00,42.0,34.0,26.16,East,84,0.0,7.0,73,0.00,,,0.00,VWS V13.01,2013-04-23 08:33:00,
2013-04-23 04:35:00,42.0,34.3,25.51,East,83,2.0,7.0,74,0.00,,,0.00,VWS V13.01,2013-04-23 08:35:00,
2013-04-23 04:36:00,42.0,34.3,25.51,East,84,0.0,7.0,74,0.00,,,0.00,VWS V13.01,2013-04-23 08:36:00,
2013-04-23 04:38:00,42.0,34.3,25.51,NE,56,7.0,7.0,74,0.00,,,0.00,VWS V13.01,2013-04-23 08:38:00,
2013-04-23 04:40:00,42.0,34.3,25.19,NE,47,0.0,7.0,74,0.00,,,0.00,VWS V13.01,2013-04-23 08:40:00,
2013-04-23 04:41:00,42.0,34.3,25.19,NE,47,0.0,7.0,74,0.00,,,0.00,VWS V13.01,2013-04-23 08:41:00,
2013-04-23 04:42:00,41.9,34.2,25.19,NE,46,0.0,7.0,74,0.00,,,0.00,VWS V13.01,2013-04-23 08:42:00,
2013-04-23 04:43:00,41.9,34.2,24.85,NE,46,0.0,7.0,74,0.00,,,0.00,VWS V13.01,2013-04-23 08:43:00,
2013-04-23 04:45:00,41.9,34.2,24.85,NE,47,0.0,7.0,74,0.00,,,0.00,VWS V13.01,2013-04-23 08:45:00,
2013-04-23 04:46:00,41.9,34.2,24.85,NE,47,0.0,7.0,74,0.00,,,0.00,VWS V13.01,2013-04-23 08:46:00,
2013-04-23 04:47:00,41.9,34.2,24.21,NE,46,0.0,7.0,74,0.00,,,0.00,VWS V13.01,2013-04-23 08:47:00,
2013-04-23 04:48:00,41.9,34.2,24.22,NE,47,0.0,7.0,74,0.00,,,0.00,VWS V13.01,2013-04-23 08:48:00,
2013-04-23 04:51:00,41.8,34.1,24.22,NE,56,2.0,7.0,74,0.00,,,0.00,VWS V13.01,2013-04-23 08:51:00,
2013-04-23 04:52:00,41.8,34.1,24.20,NNE,29,0.0,7.0,74,0.00,,,0.00,VWS V13.01,2013-04-23 08:52:00,
2013-04-23 04:53:00,41.8,34.1,24.20,East,86,5.0,7.0,74,0.00,,,0.00,VWS V13.01,2013-04-23 08:53:00,
2013-04-23 04:56:00,41.8,34.1,24.20,ENE,65,0.0,7.0,74,0.00,,,0.00,VWS V13.01,2013-04-23 08:56:00,
2013-04-23 04:57:00,41.8,34.1,24.23,East,80,1.0,7.0,74,0.00,,,0.00,VWS V13.01,2013-04-23 08:57:00,
2013-04-23 04:58:00,41.8,34.1,24.21,NE,46,0.0,7.0,74,0.00,,,0.00,VWS V13.01,2013-04-23 08:58:00,
2013-04-23 05:01:00,41.7,34.4,24.23,NNW,329,2.0,7.0,75,0.00,,,0.00,VWS V13.01,2013-04-23 09:01:00,
2013-04-23 05:02:00,41.7,34.4,24.21,North,360,0.0,7.0,75,0.00,,,0.00,VWS V13.01,2013-04-23 09:02:00,
2013-04-23 05:03:00,41.7,34.4,24.23,NE,44,1.0,7.0,75,0.00,,,0.00,VWS V13.01,2013-04-23 09:03:00,
2013-04-23 05:06:00,41.7,34.4,24.22,NNE,17,0.0,7.0,75,0.00,,,0.00,VWS V13.01,2013-04-23 09:06:00,
2013-04-23 05:07:00,41.6,34.3,24.22,NNE,15,0.0,7.0,75,0.00,,,0.00,VWS V13.01,2013-04-23 09:07:00,
2013-04-23 05:08:00,41.6,34.3,24.20,WNW,285,1.0,7.0,75,0.00,,,0.00,VWS V13.01,2013-04-23 09:08:00,
2013-04-23 05:11:00,41.6,33.9,24.22,North,5,0.0,7.0,74,0.00,,,0.00,VWS V13.01,2013-04-23 09:11:00,
2013-04-23 05:12:00,41.6,33.9,24.21,NE,42,2.0,7.0,74,0.00,,,0.00,VWS V13.01,2013-04-23 09:12:00,
2013-04-23 05:13:00,41.6,33.9,24.21,NE,52,2.0,7.0,74,0.00,,,0.00,VWS V13.01,2013-04-23 09:13:00,
2013-04-23 05:16:00,41.5,33.8,24.21,NNE,23,0.0,7.0,74,0.00,,,0.00,VWS V13.01,2013-04-23 09:16:00,
2013-04-23 05:17:00,41.5,33.8,24.22,NNE,22,0.0,7.0,74,0.00,,,0.00,VWS V13.01,2013-04-23 09:17:00,
2013-04-23 05:18:00,41.5,33.8,24.22,NNE,23,0.0,7.0,74,0.00,,,0.00,VWS V13.01,2013-04-23 09:18:00,
2013-04-23 05:22:00,41.4,33.8,24.20,East,84,1.0,7.0,74,0.00,,,0.00,VWS V13.01,2013-04-23 09:22:00,
2013-04-23 05:23:00,41.4,33.8,24.21,NNE,28,0.0,7.0,74,0.00,,,0.00,VWS V13.01,2013-04-23 09:23:00,
2013-04-23 05:27:00,41.3,33.7,24.21,ENE,64,0.0,7.0,74,0.00,,,0.00,VWS V13.01,2013-04-23 09:27:00,
2013-04-23 05:28:00,41.3,33.7,24.21,ENE,64,0.0,7.0,74,0.00,,,0.00,VWS V13.01,2013-04-23 09:28:00,
2013-04-23 05:32:00,41.3,33.7,24.20,NNE,21,1.0,8.0,74,0.00,,,0.00,VWS V13.01,2013-04-23 09:32:00,
2013-04-23 05:33:00,41.3,33.7,24.20,NNE,21,1.0,8.0,74,0.00,,,0.00,VWS V13.01,2013-04-23 09:33:00,
2013-04-23 05:37:00,41.4,33.8,24.21,NNE,33,4.0,8.0,74,0.00,,,0.00,VWS V13.01,2013-04-23 09:37:00,
2013-04-23 05:38:00,41.3,33.7,24.22,East,90,0.0,8.0,74,0.00,,,0.00,VWS V13.01,2013-04-23 09:38:00,
2013-04-23 05:39:00,41.4,33.8,24.22,East,90,0.0,8.0,74,0.00,,,0.00,VWS V13.01,2013-04-23 09:39:00,
2013-04-23 05:43:00,41.3,33.3,24.20,NNE,21,0.0,8.0,73,0.00,,,0.00,VWS V13.01,2013-04-23 09:43:00,
2013-04-23 05:44:00,41.3,33.3,24.22,NNE,21,0.0,8.0,73,0.00,,,0.00,VWS V13.01,2013-04-23 09:44:00,
2013-04-23 05:45:00,41.3,33.3,24.22,NNE,21,2.0,8.0,73,0.00,,,0.00,VWS V13.01,2013-04-23 09:45:00,
2013-04-23 05:48:00,41.3,33.3,24.19,NE,34,2.0,8.0,73,0.00,,,0.00,VWS V13.01,2013-04-23 09:48:00,
2013-04-23 05:49:00,41.3,33.3,24.21,NE,53,5.0,8.0,73,0.00,,,0.00,VWS V13.01,2013-04-23 09:49:00,
2013-04-23 05:50:00,41.3,33.3,24.21,NE,53,0.0,8.0,73,0.00,,,0.00,VWS V13.01,2013-04-23 09:50:00,
2013-04-23 05:53:00,41.3,33.3,24.19,NE,46,0.0,8.0,73,0.00,,,0.00,VWS V13.01,2013-04-23 09:53:00,
2013-04-23 05:54:00,41.3,33.3,24.18,NE,46,0.0,8.0,73,0.00,,,0.00,VWS V13.01,2013-04-23 09:54:00,
2013-04-23 05:55:00,41.3,33.3,24.18,NE,46,0.0,8.0,73,0.00,,,0.00,VWS V13.01,2013-04-23 09:55:00,
2013-04-23 05:58:00,41.3,33.3,24.19,North,360,2.0,8.0,73,0.00,,,0.00,VWS V13.01,2013-04-23 09:58:00,
2013-04-23 05:59:00,41.3,33.3,24.19,NNW,338,1.0,8.0,73,0.00,,,0.00,VWS V13.01,2013-04-23 09:59:00,
2013-04-23 06:00:00,41.3,33.3,24.18,North,355,0.0,8.0,73,0.00,,,0.00,VWS V13.01,2013-04-23 10:00:00,
2013-04-23 06:04:00,41.3,33.3,24.18,North,355,6.0,7.0,73,0.00,,,0.00,VWS V13.01,2013-04-23 10:04:00,
2013-04-23 06:05:00,41.3,33.3,24.18,North,5,4.0,7.0,73,0.00,,,0.00,VWS V13.01,2013-04-23 10:05:00,
2013-04-23 06:06:00,41.3,33.3,24.18,NNE,15,4.0,7.0,73,0.00,,,0.00,VWS V13.01,2013-04-23 10:06:00,
2013-04-23 06:09:00,41.3,33.3,24.17,NE,36,0.0,7.0,73,0.00,,,0.00,VWS V13.01,2013-04-23 10:09:00,
2013-04-23 06:10:00,41.3,33.3,24.19,NE,36,0.0,7.0,73,0.00,,,0.00,VWS V13.01,2013-04-23 10:10:00,
2013-04-23 06:11:00,41.3,33.3,24.19,NNE,22,5.0,7.0,73,0.00,,,0.00,VWS V13.01,2013-04-23 10:11:00,
2013-04-23 06:14:00,41.3,33.3,24.19,NE,48,4.0,7.0,73,0.00,,,0.00,VWS V13.01,2013-04-23 10:14:00,
2013-04-23 06:15:00,41.3,33.3,24.19,NE,45,0.0,7.0,73,0.00,,,0.00,VWS V13.01,2013-04-23 10:15:00,
2013-04-23 06:16:00,41.3,33.3,24.17,NNE,26,1.0,7.0,73,0.00,,,0.00,VWS V13.01,2013-04-23 10:16:00,
2013-04-23 06:19:00,41.3,33.3,24.17,NE,34,0.0,7.0,73,0.00,,,0.00,VWS V13.01,2013-04-23 10:19:00,
2013-04-23 06:20:00,41.3,33.3,24.17,NE,40,2.0,7.0,73,0.00,,,0.00,VWS V13.01,2013-04-23 10:20:00,
2013-04-23 06:21:00,41.3,33.3,24.17,NE,46,0.0,7.0,73,0.00,,,0.00,VWS V13.01,2013-04-23 10:21:00,
2013-04-23 06:24:00,41.3,33.3,24.18,NE,46,0.0,7.0,73,0.00,,,0.00,VWS V13.01,2013-04-23 10:24:00,
2013-04-23 06:25:00,41.2,33.2,24.18,NE,46,0.0,7.0,73,0.00,,,0.00,VWS V13.01,2013-04-23 10:25:00,
2013-04-23 06:26:00,41.2,33.2,24.19,NE,46,0.0,7.0,73,0.00,,,0.00,VWS V13.01,2013-04-23 10:26:00,
2013-04-23 06:29:00,41.3,33.3,24.20,NE,46,0.0,7.0,73,0.00,,,0.00,VWS V13.01,2013-04-23 10:29:00,
2013-04-23 06:30:00,41.3,33.3,24.20,ESE,115,4.0,7.0,73,0.00,,,0.00,VWS V13.01,2013-04-23 10:30:00,
2013-04-23 06:31:00,41.3,33.3,24.20,NNE,24,5.0,7.0,73,0.00,,,0.00,VWS V13.01,2013-04-23 10:31:00,
2013-04-23 06:32:00,41.3,33.3,24.20,ENE,67,0.0,7.0,73,0.00,,,0.00,VWS V13.01,2013-04-23 10:32:00,
2013-04-23 06:35:00,41.3,33.3,24.17,NNE,33,2.0,7.0,73,0.00,,,0.00,VWS V13.01,2013-04-23 10:35:00,
2013-04-23 06:36:00,41.3,33.3,24.17,NNE,17,3.0,7.0,73,0.00,,,0.00,VWS V13.01,2013-04-23 10:36:00,
2013-04-23 06:37:00,41.3,33.3,24.18,NNE,17,0.0,7.0,73,0.00,,,0.00,VWS V13.01,2013-04-23 10:37:00,
2013-04-23 06:40:00,41.3,33.3,24.17,NNW,344,1.0,7.0,73,0.00,,,0.00,VWS V13.01,2013-04-23 10:40:00,
2013-04-23 06:41:00,41.3,33.3,24.17,North,11,7.0,9.0,73,0.00,,,0.00,VWS V13.01,2013-04-23 10:41:00,
2013-04-23 06:42:00,41.3,33.3,24.19,NE,40,0.0,9.0,73,0.00,,,0.00,VWS V13.01,2013-04-23 10:42:00,
2013-04-23 06:45:00,41.3,33.3,24.19,ENE,68,2.0,9.0,73,0.00,,,0.00,VWS V13.01,2013-04-23 10:45:00,
2013-04-23 06:46:00,41.3,33.3,24.19,ENE,68,2.0,9.0,73,0.00,,,0.00,VWS V13.01,2013-04-23 10:46:00,
2013-04-23 06:47:00,41.3,33.3,24.17,NW,322,6.0,9.0,73,0.00,,,0.00,VWS V13.01,2013-04-23 10:47:00,
2013-04-23 06:51:00,41.3,33.3,24.19,NE,38,0.0,9.0,73,0.00,,,0.00,VWS V13.01,2013-04-23 10:51:00,
2013-04-23 06:52:00,41.3,33.3,24.18,ESE,115,1.0,9.0,73,0.00,,,0.00,VWS V13.01,2013-04-23 10:52:00,
2013-04-23 06:56:00,41.4,33.4,24.17,NE,42,1.0,9.0,73,0.00,,,0.00,VWS V13.01,2013-04-23 10:56:00,
2013-04-23 06:57:00,41.4,33.4,24.19,ENE,68,0.0,9.0,73,0.00,,,0.00,VWS V13.01,2013-04-23 10:57:00,
2013-04-23 07:01:00,41.4,33.4,24.20,NNE,28,0.0,9.0,73,0.00,,,0.00,VWS V13.01,2013-04-23 11:01:00,
2013-04-23 07:02:00,41.4,33.4,24.20,NNE,22,4.0,9.0,73,0.00,,,0.00,VWS V13.01,2013-04-23 11:02:00,
2013-04-23 07:06:00,41.4,33.4,24.19,ENE,63,0.0,5.0,73,0.00,,,0.00,VWS V13.01,2013-04-23 11:06:00,
2013-04-23 07:07:00,41.4,33.4,24.19,NNE,30,2.0,5.0,73,0.00,,,0.00,VWS V13.01,2013-04-23 11:07:00,
2013-04-23 07:11:00,41.4,33.4,24.21,East,87,4.0,9.0,73,0.00,,,0.00,VWS V13.01,2013-04-23 11:11:00,
2013-04-23 07:12:00,41.4,33.4,24.19,East,87,0.0,9.0,73,0.00,,,0.00,VWS V13.01,2013-04-23 11:12:00,
2013-04-23 07:13:00,41.4,33.4,24.19,East,82,0.0,9.0,73,0.00,,,0.00,VWS V13.01,2013-04-23 11:13:00,
2013-04-23 07:16:00,41.4,33.4,24.21,NE,44,0.0,9.0,73,0.00,,,0.00,VWS V13.01,2013-04-23 11:16:00,
2013-04-23 07:17:00,41.4,33.4,24.21,NE,44,1.0,9.0,73,0.00,,,0.00,VWS V13.01,2013-04-23 11:17:00,
2013-04-23 07:18:00,41.4,33.4,24.22,NE,44,0.0,9.0,73,0.00,,,0.00,VWS V13.01,2013-04-23 11:18:00,
2013-04-23 07:21:00,41.5,33.5,24.19,NE,44,0.0,9.0,73,0.00,,,0.00,VWS V13.01,2013-04-23 11:21:00,
2013-04-23 07:22:00,41.5,33.5,24.19,NE,44,0.0,9.0,73,0.00,,,0.00,VWS V13.01,2013-04-23 11:22:00,
2013-04-23 07:23:00,41.5,33.5,24.19,NE,44,0.0,9.0,73,0.00,,,0.00,VWS V13.01,2013-04-23 11:23:00,
2013-04-23 07:26:00,41.6,33.6,24.20,NNE,14,4.0,9.0,73,0.00,,,0.00,VWS V13.01,2013-04-23 11:26:00,
2013-04-23 07:27:00,41.6,33.6,24.20,NNW,336,3.0,9.0,73,0.00,,,0.00,VWS V13.01,2013-04-23 11:27:00,
2013-04-23 07:28:00,41.6,33.6,24.18,NNW,343,3.0,9.0,73,0.00,,,0.00,VWS V13.01,2013-04-23 11:28:00,
2013-04-23 07:32:00,41.7,33.7,24.22,NNE,24,5.0,9.0,73,0.00,,,0.00,VWS V13.01,2013-04-23 11:32:00,
2013-04-23 07:33:00,41.7,33.7,24.20,NNE,14,1.0,9.0,73,0.00,,,0.00,VWS V13.01,2013-04-23 11:33:00,
2013-04-23 07:37:00,41.7,33.7,24.18,NNW,334,1.0,9.0,73,0.00,,,0.00,VWS V13.01,2013-04-23 11:37:00,
2013-04-23 07:38:00,41.7,33.7,24.18,NNW,347,0.0,9.0,73,0.00,,,0.00,VWS V13.01,2013-04-23 11:38:00,
2013-04-23 07:42:00,41.8,33.8,24.20,NNE,15,3.0,9.0,73,0.00,,,0.00,VWS V13.01,2013-04-23 11:42:00,
2013-04-23 07:43:00,41.8,33.8,24.20,NNW,342,2.0,9.0,73,0.00,,,0.00,VWS V13.01,2013-04-23 11:43:00,
2013-04-23 07:47:00,41.9,33.9,24.18,NE,53,2.0,9.0,73,0.00,,,0.00,VWS V13.01,2013-04-23 11:47:00,
2013-04-23 07:48:00,41.9,33.9,24.19,NE,53,0.0,9.0,73,0.00,,,0.00,VWS V13.01,2013-04-23 11:48:00,
2013-04-23 07:49:00,41.9,33.9,24.19,NE,53,1.0,9.0,73,0.00,,,0.00,VWS V13.01,2013-04-23 11:49:00,
2013-04-23 07:52:00,41.9,33.9,24.20,North,5,3.0,9.0,73,0.00,,,0.00,VWS V13.01,2013-04-23 11:52:00,
2013-04-23 07:53:00,42.0,34.0,24.19,North,5,0.0,9.0,73,0.00,,,0.00,VWS V13.01,2013-04-23 11:53:00,
2013-04-23 07:54:00,42.0,34.0,24.19,North,9,1.0,9.0,73,0.00,,,0.00,VWS V13.01,2013-04-23 11:54:00,
2013-04-23 07:57:00,42.1,34.1,24.18,NNE,27,1.0,9.0,73,0.00,,,0.00,VWS V13.01,2013-04-23 11:57:00,
2013-04-23 07:58:00,42.2,34.2,24.18,NNE,28,0.0,9.0,73,0.00,,,0.00,VWS V13.01,2013-04-23 11:58:00,
2013-04-23 07:59:00,42.2,34.2,24.18,NNE,26,0.0,9.0,73,0.00,,,0.00,VWS V13.01,2013-04-23 11:59:00,
2013-04-23 08:02:00,42.3,33.9,24.20,NNE,32,4.0,9.0,72,0.00,,,0.00,VWS V13.01,2013-04-23 12:02:00,
2013-04-23 08:03:00,42.3,33.9,24.21,NNE,28,3.0,9.0,72,0.00,,,0.00,VWS V13.01,2013-04-23 12:03:00,
2013-04-23 08:04:00,42.3,33.9,24.20,NNE,26,0.0,0.0,72,0.00,,,0.00,VWS V13.01,2013-04-23 12:04:00,
2013-04-23 08:05:00,42.4,34.0,24.19,NNE,25,0.0,0.0,72,0.00,,,0.00,VWS V13.01,2013-04-23 12:05:00,
2013-04-23 08:07:00,42.4,34.0,24.20,North,360,0.0,2.0,72,0.00,,,0.00,VWS V13.01,2013-04-23 12:07:00,
2013-04-23 08:08:00,42.5,34.1,24.21,NNE,13,0.0,2.0,72,0.00,,,0.00,VWS V13.01,2013-04-23 12:08:00,
2013-04-23 08:09:00,42.5,34.1,24.21,NNE,13,0.0,2.0,72,0.00,,,0.00,VWS V13.01,2013-04-23 12:09:00,
2013-04-23 08:10:00,42.5,34.1,24.21,NW,306,3.0,5.0,72,0.00,,,0.00,VWS V13.01,2013-04-23 12:10:00,
2013-04-23 08:13:00,42.6,34.2,24.19,ESE,113,3.0,7.0,72,0.00,,,0.00,VWS V13.01,2013-04-23 12:13:00,
2013-04-23 08:14:00,42.6,34.2,24.20,NNE,20,1.0,7.0,72,0.00,,,0.00,VWS V13.01,2013-04-23 12:14:00,
2013-04-23 08:15:00,42.6,34.2,24.19,NNE,26,0.0,7.0,72,0.00,,,0.00,VWS V13.01,2013-04-23 12:15:00,
2013-04-23 08:18:00,42.6,34.2,24.18,ENE,58,2.0,7.0,72,0.00,,,0.00,VWS V13.01,2013-04-23 12:18:00,
2013-04-23 08:19:00,42.7,34.3,24.22,NNW,332,7.0,7.0,72,0.00,,,0.00,VWS V13.01,2013-04-23 12:19:00,
2013-04-23 08:20:00,42.6,34.2,24.21,NNW,342,0.0,7.0,72,0.00,,,0.00,VWS V13.01,2013-04-23 12:20:00,
2013-04-23 08:23:00,42.6,34.2,24.20,West,276,2.0,9.0,72,0.00,,,0.00,VWS V13.01,2013-04-23 12:23:00,
2013-04-23 08:24:00,42.7,34.3,24.18,North,355,5.0,9.0,72,0.00,,,0.00,VWS V13.01,2013-04-23 12:24:00,
2013-04-23 08:25:00,42.6,34.2,24.18,NNE,21,2.0,9.0,72,0.00,,,0.00,VWS V13.01,2013-04-23 12:25:00,
2013-04-23 08:28:00,42.6,34.2,24.21,NNE,14,3.0,9.0,72,0.00,,,0.00,VWS V13.01,2013-04-23 12:28:00,
2013-04-23 08:29:00,42.6,34.2,24.21,NNE,18,5.0,10.0,72,0.00,,,0.00,VWS V13.01,2013-04-23 12:29:00,
2013-04-23 08:30:00,42.6,34.2,24.20,NNE,18,2.0,10.0,72,0.00,,,0.00,VWS V13.01,2013-04-23 12:30:00,
2013-04-23 08:31:00,42.6,34.2,24.21,NNE,19,5.0,10.0,72,0.00,,,0.00,VWS V13.01,2013-04-23 12:31:00,
2013-04-23 08:33:00,42.6,34.2,24.20,NE,38,0.0,10.0,72,0.00,,,0.00,VWS V13.01,2013-04-23 12:33:00,
2013-04-23 08:34:00,42.6,34.2,24.20,NE,38,0.0,10.0,72,0.00,,,0.00,VWS V13.01,2013-04-23 12:34:00,
2013-04-23 08:35:00,42.6,34.2,24.20,NE,39,0.0,10.0,72,0.00,,,0.00,VWS V13.01,2013-04-23 12:35:00,
2013-04-23 08:36:00,42.7,34.3,24.20,NNE,32,2.0,10.0,72,0.00,,,0.00,VWS V13.01,2013-04-23 12:36:00,
2013-04-23 08:38:00,42.7,34.3,24.17,NE,39,3.0,10.0,72,0.00,,,0.00,VWS V13.01,2013-04-23 12:38:00,
2013-04-23 08:39:00,42.7,34.3,24.17,NNE,32,4.0,10.0,72,0.00,,,0.00,VWS V13.01,2013-04-23 12:39:00,
2013-04-23 08:40:00,42.7,34.3,24.19,NNE,32,2.0,10.0,72,0.00,,,0.00,VWS V13.01,2013-04-23 12:40:00,
2013-04-23 08:41:00,42.8,34.4,24.19,NNW,338,5.0,10.0,72,0.00,,,0.00,VWS V13.01,2013-04-23 12:41:00,
2013-04-23 08:44:00,42.8,34.4,24.15,NNE,26,1.0,10.0,72,0.00,,,0.00,VWS V13.01,2013-04-23 12:44:00,
2013-04-23 08:45:00,42.8,34.4,24.16,NNE,14,2.0,10.0,72,0.00,,,0.00,VWS V13.01,2013-04-23 12:45:00,
2013-04-23 08:46:00,42.8,34.4,24.16,NE,44,1.0,10.0,72,0.00,,,0.00,VWS V13.01,2013-04-23 12:46:00,
2013-04-23 08:49:00,42.8,34.4,24.16,ENE,57,0.0,10.0,72,0.00,,,0.00,VWS V13.01,2013-04-23 12:49:00,
2013-04-23 08:50:00,42.8,34.4,24.18,ENE,57,0.0,10.0,72,0.00,,,0.00,VWS V13.01,2013-04-23 12:50:00,
2013-04-23 08:51:00,42.8,34.4,24.18,ENE,57,0.0,10.0,72,0.00,,,0.00,VWS V13.01,2013-04-23 12:51:00,
2013-04-23 08:54:00,42.8,34.4,24.17,NNE,25,4.0,10.0,72,0.00,,,0.00,VWS V13.01,2013-04-23 12:54:00,
2013-04-23 08:55:00,42.9,34.5,24.16,North,9,4.0,10.0,72,0.00,,,0.00,VWS V13.01,2013-04-23 12:55:00,
2013-04-23 08:56:00,42.9,34.5,24.16,North,9,2.0,10.0,72,0.00,,,0.00,VWS V13.01,2013-04-23 12:56:00,
2013-04-23 08:59:00,42.9,34.5,24.16,NNE,28,3.0,10.0,72,0.00,,,0.00,VWS V13.01,2013-04-23 12:59:00,
2013-04-23 09:00:00,43.0,34.6,24.16,NNE,29,2.0,10.0,72,0.00,,,0.00,VWS V13.01,2013-04-23 13:00:00,
2013-04-23 09:01:00,43.0,34.6,24.16,NNE,29,1.0,10.0,72,0.00,,,0.00,VWS V13.01,2013-04-23 13:01:00,
2013-04-23 09:02:00,43.0,34.6,24.16,ENE,69,2.0,10.0,72,0.00,,,0.00,VWS V13.01,2013-04-23 13:02:00,
2013-04-23 09:05:00,43.0,34.6,24.16,NE,45,0.0,6.0,72,0.00,,,0.00,VWS V13.01,2013-04-23 13:05:00,
2013-04-23 09:06:00,43.1,34.7,24.17,NNE,22,4.0,6.0,72,0.00,,,0.00,VWS V13.01,2013-04-23 13:06:00,
2013-04-23 09:07:00,43.1,34.7,24.17,NE,36,0.0,6.0,72,0.00,,,0.00,VWS V13.01,2013-04-23 13:07:00,
2013-04-23 09:10:00,43.1,35.0,24.17,NNE,26,4.0,7.0,73,0.00,,,0.00,VWS V13.01,2013-04-23 13:10:00,
2013-04-23 09:11:00,43.2,34.8,24.17,NNE,18,2.0,7.0,72,0.00,,,0.00,VWS V13.01,2013-04-23 13:11:00,
2013-04-23 09:12:00,43.2,34.8,24.17,NNE,22,2.0,7.0,72,0.00,,,0.00,VWS V13.01,2013-04-23 13:12:00,
2013-04-23 09:15:00,43.2,35.1,24.16,NNE,14,0.0,7.0,73,0.00,,,0.00,VWS V13.01,2013-04-23 13:15:00,
2013-04-23 09:16:00,43.3,35.2,24.16,North,355,4.0,7.0,73,0.00,,,0.00,VWS V13.01,2013-04-23 13:16:00,
2013-04-23 09:17:00,43.3,35.2,24.16,NE,51,2.0,7.0,73,0.00,,,0.00,VWS V13.01,2013-04-23 13:17:00,
2013-04-23 09:20:00,43.3,34.9,24.16,North,11,4.0,7.0,72,0.00,,,0.00,VWS V13.01,2013-04-23 13:20:00,
2013-04-23 09:21:00,43.4,35.0,24.16,North,10,0.0,7.0,72,0.00,,,0.00,VWS V13.01,2013-04-23 13:21:00,
2013-04-23 09:23:00,43.4,35.0,24.18,ENE,76,0.0,7.0,72,0.00,,,0.00,VWS V13.01,2013-04-23 13:23:00,
2013-04-23 09:25:00,43.4,35.0,24.18,East,90,0.0,7.0,72,0.00,,,0.00,VWS V13.01,2013-04-23 13:25:00,
2013-04-23 09:26:00,43.4,35.0,24.18,East,90,0.0,7.0,72,0.00,,,0.00,VWS V13.01,2013-04-23 13:26:00,
2013-04-23 09:28:00,43.4,35.3,24.17,East,90,0.0,7.0,73,0.00,,,0.00,VWS V13.01,2013-04-23 13:28:00,
2013-04-23 09:31:00,43.4,35.3,24.17,East,90,0.0,7.0,73,0.00,,,0.00,VWS V13.01,2013-04-23 13:31:00,
2013-04-23 09:33:00,43.5,35.4,24.15,North,350,4.0,7.0,73,0.00,,,0.00,VWS V13.01,2013-04-23 13:33:00,
2013-04-23 09:36:00,43.6,35.5,24.15,North,350,0.0,7.0,73,0.00,,,0.00,VWS V13.01,2013-04-23 13:36:00,
2013-04-23 09:38:00,43.7,35.6,24.17,North,5,2.0,7.0,73,0.00,,,0.00,VWS V13.01,2013-04-23 13:38:00,
2013-04-23 09:41:00,43.8,35.7,24.17,NE,40,3.0,8.0,73,0.00,,,0.00,VWS V13.01,2013-04-23 13:41:00,
2013-04-23 09:44:00,43.8,36.1,24.18,NE,41,0.0,8.0,74,0.00,,,0.00,VWS V13.01,2013-04-23 13:44:00,
2013-04-23 09:46:00,43.7,36.0,24.16,NNE,16,0.0,8.0,74,0.00,,,0.00,VWS V13.01,2013-04-23 13:46:00,
2013-04-23 09:47:00,43.8,36.1,24.16,NE,36,4.0,8.0,74,0.00,,,0.00,VWS V13.01,2013-04-23 13:47:00,
2013-04-23 09:49:00,43.7,36.3,24.16,ENE,71,1.0,8.0,75,0.00,,,0.00,VWS V13.01,2013-04-23 13:49:00,
2013-04-23 09:51:00,43.6,36.2,24.17,North,360,0.0,8.0,75,0.00,,,0.00,VWS V13.01,2013-04-23 13:51:00,
2013-04-23 09:52:00,43.6,36.2,24.17,NE,55,5.0,8.0,75,0.00,,,0.00,VWS V13.01,2013-04-23 13:52:00,
2013-04-23 09:54:00,43.5,36.1,24.15,NNE,15,1.0,8.0,75,0.00,,,0.00,VWS V13.01,2013-04-23 13:54:00,
2013-04-23 09:56:00,43.5,36.5,24.15,East,87,1.0,8.0,76,0.00,,,0.00,VWS V13.01,2013-04-23 13:56:00,
2013-04-23 09:57:00,43.5,36.5,24.17,NE,49,4.0,8.0,76,0.00,,,0.00,VWS V13.01,2013-04-23 13:57:00,
2013-04-23 09:59:00,43.6,36.5,24.17,NE,49,0.0,8.0,76,0.00,,,0.00,VWS V13.01,2013-04-23 13:59:00,
2013-04-23 10:01:00,43.6,36.5,24.15,NNE,33,2.0,8.0,76,0.00,,,0.00,VWS V13.01,2013-04-23 14:01:00,
2013-04-23 10:02:00,43.6,36.5,24.15,ENE,70,2.0,8.0,76,0.00,,,0.00,VWS V13.01,2013-04-23 14:02:00,
2013-04-23 10:04:00,43.7,36.6,24.16,NNW,337,2.0,5.0,76,0.00,,,0.00,VWS V13.01,2013-04-23 14:04:00,
2013-04-23 10:07:00,43.7,37.0,24.16,NNW,338,0.0,5.0,77,0.00,,,0.00,VWS V13.01,2013-04-23 14:07:00,
2013-04-23 10:09:00,43.9,37.2,24.18,NNE,13,9.0,9.0,77,0.00,,,0.00,VWS V13.01,2013-04-23 14:09:00,
2013-04-23 10:12:00,43.9,36.8,24.16,NNE,15,5.0,9.0,76,0.00,,,0.00,VWS V13.01,2013-04-23 14:12:00,
2013-04-23 10:14:00,44.0,37.3,24.15,NNE,28,5.0,9.0,77,0.00,,,0.00,VWS V13.01,2013-04-23 14:14:00,
2013-04-23 10:17:00,44.0,37.3,24.17,NNE,28,3.0,9.0,77,0.00,,,0.00,VWS V13.01,2013-04-23 14:17:00,
2013-04-23 10:20:00,44.1,37.4,24.16,NNE,24,4.0,9.0,77,0.00,,,0.00,VWS V13.01,2013-04-23 14:20:00,
2013-04-23 10:22:00,44.1,37.4,24.17,NE,54,5.0,9.0,77,0.00,,,0.00,VWS V13.01,2013-04-23 14:22:00,
2013-04-23 10:23:00,44.1,37.4,24.16,NNE,32,3.0,9.0,77,0.00,,,0.00,VWS V13.01,2013-04-23 14:23:00,
2013-04-23 10:25:00,44.0,37.3,24.17,NE,52,0.0,9.0,77,0.00,,,0.00,VWS V13.01,2013-04-23 14:25:00,
2013-04-23 10:27:00,44.0,37.6,24.16,ESE,122,2.0,9.0,78,0.00,,,0.00,VWS V13.01,2013-04-23 14:27:00,
2013-04-23 10:28:00,44.0,37.9,24.16,North,360,2.0,9.0,79,0.00,,,0.00,VWS V13.01,2013-04-23 14:28:00,
2013-04-23 10:30:00,44.0,37.9,24.17,NE,45,2.0,9.0,79,0.00,,,0.00,VWS V13.01,2013-04-23 14:30:00,
2013-04-23 10:32:00,44.1,38.0,24.17,NE,52,2.0,9.0,79,0.00,,,0.00,VWS V13.01,2013-04-23 14:32:00,
2013-04-23 10:33:00,44.1,38.3,24.17,NE,51,2.0,9.0,80,0.00,,,0.00,VWS V13.01,2013-04-23 14:33:00,
2013-04-23 10:35:00,44.2,38.4,24.17,NNE,23,2.0,9.0,80,0.00,,,0.00,VWS V13.01,2013-04-23 14:35:00,
2013-04-23 10:37:00,44.2,38.4,24.16,North,9,5.0,9.0,80,0.00,,,0.00,VWS V13.01,2013-04-23 14:37:00,
2013-04-23 10:38:00,44.2,38.4,24.16,NNE,19,5.0,9.0,80,0.00,,,0.00,VWS V13.01,2013-04-23 14:38:00,
2013-04-23 10:40:00,44.1,38.7,24.17,North,360,6.0,9.0,81,0.00,,,0.00,VWS V13.01,2013-04-23 14:40:00,
2013-04-23 10:43:00,44.1,38.7,24.16,NW,315,3.0,9.0,81,0.00,,,0.00,VWS V13.01,2013-04-23 14:43:00,
2013-04-23 10:46:00,43.9,38.5,24.17,ENE,67,1.0,9.0,81,0.00,,,0.00,VWS V13.01,2013-04-23 14:46:00,
2013-04-23 10:48:00,43.8,38.7,24.16,NE,36,4.0,9.0,82,0.00,,,0.00,VWS V13.01,2013-04-23 14:48:00,
2013-04-23 10:51:00,43.7,38.9,24.17,North,5,2.0,9.0,83,0.00,,,0.00,VWS V13.01,2013-04-23 14:51:00,
2013-04-23 10:53:00,43.7,39.2,24.16,NNE,32,0.0,9.0,84,0.00,,,0.00,VWS V13.01,2013-04-23 14:53:00,
2013-04-23 10:54:00,43.7,39.2,24.15,NNE,32,0.0,9.0,84,0.00,,,0.00,VWS V13.01,2013-04-23 14:54:00,
2013-04-23 10:56:00,43.7,39.2,24.16,North,5,0.0,9.0,84,0.00,,,0.00,VWS V13.01,2013-04-23 14:56:00,
2013-04-23 10:58:00,43.7,39.2,24.14,NNE,22,1.0,9.0,84,0.00,,,0.00,VWS V13.01,2013-04-23 14:58:00,
2013-04-23 10:59:00,43.7,39.2,24.14,NE,42,1.0,9.0,84,0.00,,,0.00,VWS V13.01,2013-04-23 14:59:00,
2013-04-23 11:01:00,43.6,38.8,24.16,NNW,345,4.0,9.0,83,0.00,,,0.00,VWS V13.01,2013-04-23 15:01:00,
2013-04-23 11:03:00,43.5,38.7,24.16,NNE,13,2.0,9.0,83,0.00,,,0.00,VWS V13.01,2013-04-23 15:03:00,
2013-04-23 11:04:00,43.5,38.7,24.15,NNE,30,3.0,4.0,83,0.00,,,0.00,VWS V13.01,2013-04-23 15:04:00,
2013-04-23 11:06:00,43.5,38.7,24.15,NE,34,4.0,6.0,83,0.00,,,0.00,VWS V13.01,2013-04-23 15:06:00,
2013-04-23 11:08:00,43.5,38.7,24.16,NNW,345,2.0,6.0,83,0.00,,,0.00,VWS V13.01,2013-04-23 15:08:00,
2013-04-23 11:09:00,43.6,38.8,24.16,NE,34,5.0,6.0,83,0.00,,,0.00,VWS V13.01,2013-04-23 15:09:00,
2013-04-23 11:11:00,43.6,39.1,24.16,NNE,19,7.0,7.0,84,0.00,,,0.00,VWS V13.01,2013-04-23 15:11:00,
2013-04-23 11:13:00,43.6,39.1,24.16,NNW,340,1.0,7.0,84,0.00,,,0.00,VWS V13.01,2013-04-23 15:13:00,
2013-04-23 11:14:00,43.6,39.1,24.16,NNW,340,3.0,7.0,84,0.00,,,0.00,VWS V13.01,2013-04-23 15:14:00,
2013-04-23 11:16:00,43.6,39.1,24.16,NNW,340,2.0,7.0,84,0.00,,,0.00,VWS V13.01,2013-04-23 15:16:00,
2013-04-23 11:19:00,43.6,39.4,24.16,NNE,18,0.0,9.0,85,0.00,,,0.00,VWS V13.01,2013-04-23 15:19:00,
2013-04-23 11:21:00,43.5,39.3,24.17,NNE,17,3.0,9.0,85,0.00,,,0.00,VWS V13.01,2013-04-23 15:21:00,
2013-04-23 11:24:00,43.5,39.3,24.17,NNE,16,1.0,9.0,85,0.00,,,0.00,VWS V13.01,2013-04-23 15:24:00,
2013-04-23 11:26:00,43.6,39.7,24.17,NNE,16,0.0,9.0,86,0.00,,,0.00,VWS V13.01,2013-04-23 15:26:00,
2013-04-23 11:29:00,43.6,39.7,24.16,NNE,16,0.0,9.0,86,0.00,,,0.00,VWS V13.01,2013-04-23 15:29:00,
2013-04-23 11:31:00,43.7,39.8,24.17,NNE,16,0.0,9.0,86,0.00,,,0.00,VWS V13.01,2013-04-23 15:31:00,
2013-04-23 11:34:00,43.7,39.8,24.17,North,10,4.0,9.0,86,0.00,,,0.00,VWS V13.01,2013-04-23 15:34:00,
2013-04-23 11:35:00,43.7,39.8,24.17,NNE,26,2.0,9.0,86,0.00,,,0.00,VWS V13.01,2013-04-23 15:35:00,
2013-04-23 11:36:00,43.7,39.5,24.17,NNE,16,2.0,9.0,85,0.00,,,0.00,VWS V13.01,2013-04-23 15:36:00,
2013-04-23 11:37:00,43.7,39.8,24.17,NNE,16,4.0,9.0,86,0.00,,,0.00,VWS V13.01,2013-04-23 15:37:00,
2013-04-23 11:39:00,43.7,39.8,24.17,NNE,26,5.0,9.0,86,0.00,,,0.00,VWS V13.01,2013-04-23 15:39:00,
2013-04-23 11:40:00,43.7,39.5,24.17,NNE,21,0.0,9.0,85,0.00,,,0.00,VWS V13.01,2013-04-23 15:40:00,
2013-04-23 11:41:00,43.8,39.6,24.17,NW,319,0.0,9.0,85,0.00,,,0.00,VWS V13.01,2013-04-23 15:41:00,
2013-04-23 11:42:00,43.8,39.6,24.16,NE,42,0.0,9.0,85,0.00,,,0.00,VWS V13.01,2013-04-23 15:42:00,
2013-04-23 11:44:00,43.9,39.7,24.17,NE,38,1.0,9.0,85,0.00,,,0.00,VWS V13.01,2013-04-23 15:44:00,
2013-04-23 11:45:00,44.0,40.1,24.17,NE,56,0.0,9.0,86,0.00,,,0.00,VWS V13.01,2013-04-23 15:45:00,
2013-04-23 11:46:00,44.0,40.1,24.17,NE,36,4.0,9.0,86,0.00,,,0.00,VWS V13.01,2013-04-23 15:46:00,
2013-04-23 11:47:00,44.0,40.1,24.16,NNE,30,4.0,9.0,86,0.00,,,0.00,VWS V13.01,2013-04-23 15:47:00,
2013-04-23 11:49:00,44.1,40.2,24.17,NNE,30,1.0,9.0,86,0.00,,,0.00,VWS V13.01,2013-04-23 15:49:00,
2013-04-23 11:50:00,44.2,40.3,24.16,NNE,23,1.0,9.0,86,0.00,,,0.00,VWS V13.01,2013-04-23 15:50:00,
2013-04-23 11:51:00,44.2,40.3,24.17,NNE,23,0.0,9.0,86,0.00,,,0.00,VWS V13.01,2013-04-23 15:51:00,
2013-04-23 11:52:00,44.3,40.7,24.17,NE,36,0.0,9.0,87,0.00,,,0.00,VWS V13.01,2013-04-23 15:52:00,
2013-04-23 11:54:00,44.4,40.8,24.17,NE,36,0.0,9.0,87,0.00,,,0.00,VWS V13.01,2013-04-23 15:54:00,
2013-04-23 11:55:00,44.4,40.8,24.17,East,80,3.0,9.0,87,0.00,,,0.00,VWS V13.01,2013-04-23 15:55:00,
2013-04-23 11:56:00,44.4,40.8,24.16,North,360,4.0,9.0,87,0.00,,,0.00,VWS V13.01,2013-04-23 15:56:00,
2013-04-23 11:57:00,44.4,40.8,24.16,NNE,23,0.0,9.0,87,0.00,,,0.00,VWS V13.01,2013-04-23 15:57:00,
2013-04-23 11:59:00,44.4,40.8,24.16,NNE,28,8.0,9.0,87,0.00,,,0.00,VWS V13.01,2013-04-23 15:59:00,
2013-04-23 12:00:00,44.3,40.7,24.16,NE,37,5.0,9.0,87,0.00,,,0.00,VWS V13.01,2013-04-23 16:00:00,
2013-04-23 12:01:00,44.3,40.7,24.17,NE,41,2.0,9.0,87,0.00,,,0.00,VWS V13.01,2013-04-23 16:01:00,
2013-04-23 12:02:00,44.3,40.7,24.16,ENE,61,2.0,9.0,87,0.00,,,0.00,VWS V13.01,2013-04-23 16:02:00,
2013-04-23 12:04:00,44.2,40.6,24.17,ENE,62,0.0,1.0,87,0.00,,,0.00,VWS V13.01,2013-04-23 16:04:00,
2013-04-23 12:05:00,44.2,40.6,24.17,NNE,30,5.0,5.0,87,0.00,,,0.00,VWS V13.01,2013-04-23 16:05:00,
2013-04-23 12:06:00,44.2,40.6,24.17,NNE,31,1.0,5.0,87,0.00,,,0.00,VWS V13.01,2013-04-23 16:06:00,
2013-04-23 12:07:00,44.2,40.6,24.17,NNE,19,3.0,6.0,87,0.00,,,0.00,VWS V13.01,2013-04-23 16:07:00,
2013-04-23 12:09:00,44.1,40.8,24.17,NNE,26,4.0,6.0,88,0.00,,,0.00,VWS V13.01,2013-04-23 16:09:00,
2013-04-23 12:10:00,44.1,40.8,24.17,North,9,2.0,6.0,88,0.00,,,0.00,VWS V13.01,2013-04-23 16:10:00,
2013-04-23 12:11:00,44.1,40.8,24.17,North,9,0.0,6.0,88,0.00,,,0.00,VWS V13.01,2013-04-23 16:11:00,
2013-04-23 12:12:00,44.1,40.8,24.17,NE,53,1.0,6.0,88,0.00,,,0.00,VWS V13.01,2013-04-23 16:12:00,
2013-04-23 12:14:00,44.1,40.8,24.16,North,11,1.0,6.0,88,0.00,,,0.00,VWS V13.01,2013-04-23 16:14:00,
2013-04-23 12:15:00,44.1,40.8,24.16,North,11,0.0,6.0,88,0.00,,,0.00,VWS V13.01,2013-04-23 16:15:00,
2013-04-23 12:16:00,44.1,40.8,24.16,NNW,327,5.0,6.0,88,0.00,,,0.00,VWS V13.01,2013-04-23 16:16:00,
2013-04-23 12:17:00,44.1,40.8,24.16,NNW,331,0.0,6.0,88,0.00,,,0.00,VWS V13.01,2013-04-23 16:17:00,
2013-04-23 12:18:00,44.1,40.8,24.16,NNW,331,0.0,6.0,88,0.00,,,0.00,VWS V13.01,2013-04-23 16:18:00,
2013-04-23 12:19:00,44.2,40.9,24.17,ENE,63,2.0,6.0,88,0.00,,,0.00,VWS V13.01,2013-04-23 16:19:00,
2013-04-23 12:21:00,44.2,40.9,24.17,ENE,63,0.0,6.0,88,0.00,,,0.00,VWS V13.01,2013-04-23 16:21:00,
2013-04-23 12:22:00,44.2,40.6,24.16,ENE,63,0.0,6.0,87,0.00,,,0.00,VWS V13.01,2013-04-23 16:22:00,
2013-04-23 12:23:00,44.2,40.6,24.16,ENE,63,0.0,6.0,87,0.00,,,0.00,VWS V13.01,2013-04-23 16:23:00,
2013-04-23 12:25:00,44.3,40.7,24.15,ENE,63,0.0,6.0,87,0.00,,,0.00,VWS V13.01,2013-04-23 16:25:00,
2013-04-23 12:26:00,44.3,40.7,24.15,ENE,63,1.0,6.0,87,0.00,,,0.00,VWS V13.01,2013-04-23 16:26:00,
2013-04-23 12:27:00,44.3,40.7,24.13,NNE,18,2.0,6.0,87,0.00,,,0.00,VWS V13.01,2013-04-23 16:27:00,
2013-04-23 12:29:00,44.4,40.8,24.13,North,355,4.0,6.0,87,0.00,,,0.00,VWS V13.01,2013-04-23 16:29:00,
2013-04-23 12:30:00,44.4,40.8,24.14,NE,48,0.0,6.0,87,0.00,,,0.00,VWS V13.01,2013-04-23 16:30:00,
2013-04-23 12:31:00,44.4,40.8,24.14,NNW,338,2.0,6.0,87,0.00,,,0.00,VWS V13.01,2013-04-23 16:31:00,
2013-04-23 12:32:00,44.4,40.8,24.14,NE,46,1.0,6.0,87,0.00,,,0.00,VWS V13.01,2013-04-23 16:32:00,
2013-04-23 12:34:00,44.5,40.6,24.17,NE,39,2.0,6.0,86,0.00,,,0.00,VWS V13.01,2013-04-23 16:34:00,
2013-04-23 12:35:00,44.5,40.6,24.16,NNE,33,4.0,6.0,86,0.00,,,0.00,VWS V13.01,2013-04-23 16:35:00,
2013-04-23 12:36:00,44.4,40.5,24.16,NE,38,4.0,6.0,86,0.00,,,0.00,VWS V13.01,2013-04-23 16:36:00,
2013-04-23 12:37:00,44.4,40.5,24.16,ENE,69,0.0,6.0,86,0.00,,,0.00,VWS V13.01,2013-04-23 16:37:00,
2013-04-23 12:39:00,44.4,40.5,24.15,NNE,18,2.0,6.0,86,0.00,,,0.00,VWS V13.01,2013-04-23 16:39:00,
2013-04-23 12:41:00,44.4,40.5,24.16,North,11,4.0,6.0,86,0.00,,,0.00,VWS V13.01,2013-04-23 16:41:00,
2013-04-23 12:42:00,44.4,40.5,24.16,NNE,30,6.0,6.0,86,0.00,,,0.00,VWS V13.01,2013-04-23 16:42:00,
2013-04-23 12:43:00,44.4,40.5,24.16,East,98,3.0,6.0,86,0.00,,,0.00,VWS V13.01,2013-04-23 16:43:00,
2013-04-23 12:44:00,44.4,40.5,24.16,NNW,342,5.0,8.0,86,0.00,,,0.00,VWS V13.01,2013-04-23 16:44:00,
2013-04-23 12:45:00,44.5,40.6,24.16,NNE,17,5.0,8.0,86,0.00,,,0.00,VWS V13.01,2013-04-23 16:45:00,
2013-04-23 12:46:00,44.5,40.6,24.16,NNE,17,0.0,8.0,86,0.00,,,0.00,VWS V13.01,2013-04-23 16:46:00,
2013-04-23 12:47:00,44.5,40.6,24.18,NE,48,3.0,8.0,86,0.00,,,0.00,VWS V13.01,2013-04-23 16:47:00,
2013-04-23 12:48:00,44.5,40.6,24.18,NE,52,0.0,8.0,86,0.00,,,0.00,VWS V13.01,2013-04-23 16:48:00,
2013-04-23 12:49:00,44.5,40.6,24.16,WSW,248,2.0,8.0,86,0.00,,,0.00,VWS V13.01,2013-04-23 16:49:00,
2013-04-23 12:51:00,44.5,40.6,24.16,NE,44,2.0,8.0,86,0.00,,,0.00,VWS V13.01,2013-04-23 16:51:00,
2013-04-23 12:52:00,44.6,40.7,24.16,NE,37,5.0,8.0,86,0.00,,,0.00,VWS V13.01,2013-04-23 16:52:00,
2013-04-23 12:53:00,44.6,40.7,24.17,North,5,6.0,8.0,86,0.00,,,0.00,VWS V13.01,2013-04-23 16:53:00,
2013-04-23 12:55:00,44.6,40.7,24.16,NNE,16,0.0,8.0,86,0.00,,,0.00,VWS V13.01,2013-04-23 16:55:00,
2013-04-23 12:56:00,44.6,40.7,24.16,ENE,74,4.0,8.0,86,0.00,,,0.00,VWS V13.01,2013-04-23 16:56:00,
2013-04-23 12:57:00,44.7,40.5,24.16,North,360,3.0,8.0,85,0.00,,,0.00,VWS V13.01,2013-04-23 16:57:00,
2013-04-23 12:58:00,44.6,40.4,24.16,NNE,13,0.0,8.0,85,0.00,,,0.00,VWS V13.01,2013-04-23 16:58:00,
2013-04-23 13:00:00,44.7,40.8,24.16,NE,34,5.0,8.0,86,0.00,,,0.00,VWS V13.01,2013-04-23 17:00:00,
2013-04-23 13:01:00,44.7,40.8,24.17,North,9,3.0,8.0,86,0.00,,,0.00,VWS V13.01,2013-04-23 17:01:00,
2013-04-23 13:03:00,44.8,40.6,24.17,NNE,30,0.0,8.0,85,0.00,,,0.00,VWS V13.01,2013-04-23 17:03:00,
2013-04-23 13:05:00,44.9,40.7,24.17,North,360,4.0,9.0,85,0.00,,,0.00,VWS V13.01,2013-04-23 17:05:00,
2013-04-23 13:06:00,45.0,40.8,24.16,NE,35,2.0,9.0,85,0.00,,,0.00,VWS V13.01,2013-04-23 17:06:00,
2013-04-23 13:07:00,45.0,40.8,24.17,NNE,19,3.0,9.0,85,0.00,,,0.00,VWS V13.01,2013-04-23 17:07:00,
2013-04-23 13:08:00,45.0,40.8,24.16,NNE,22,0.0,9.0,85,0.00,,,0.00,VWS V13.01,2013-04-23 17:08:00,
2013-04-23 13:09:00,45.0,40.8,24.17,North,5,5.0,9.0,85,0.00,,,0.00,VWS V13.01,2013-04-23 17:09:00,
2013-04-23 13:10:00,45.0,40.5,24.17,WSW,249,0.0,9.0,84,0.00,,,0.00,VWS V13.01,2013-04-23 17:10:00,
2013-04-23 13:11:00,45.1,40.6,24.16,NE,51,4.0,9.0,84,0.00,,,0.00,VWS V13.01,2013-04-23 17:11:00,
2013-04-23 13:12:00,45.1,40.6,24.16,NNE,33,1.0,9.0,84,0.00,,,0.00,VWS V13.01,2013-04-23 17:12:00,
2013-04-23 13:13:00,45.1,40.6,24.17,NNE,33,1.0,9.0,84,0.00,,,0.00,VWS V13.01,2013-04-23 17:13:00,
2013-04-23 13:14:00,45.2,40.7,24.17,NNE,30,4.0,9.0,84,0.00,,,0.00,VWS V13.01,2013-04-23 17:14:00,
2013-04-23 13:15:00,45.2,40.7,24.16,North,355,1.0,9.0,84,0.00,,,0.00,VWS V13.01,2013-04-23 17:15:00,
2013-04-23 13:17:00,45.3,40.8,24.16,ESE,103,0.0,9.0,84,0.00,,,0.00,VWS V13.01,2013-04-23 17:17:00,
2013-04-23 13:18:00,45.3,40.8,24.16,ESE,104,0.0,9.0,84,0.00,,,0.00,VWS V13.01,2013-04-23 17:18:00,
2013-04-23 13:19:00,45.4,40.9,24.16,North,355,2.0,9.0,84,0.00,,,0.00,VWS V13.01,2013-04-23 17:19:00,
2013-04-23 13:20:00,45.5,41.0,24.16,NW,319,3.0,9.0,84,0.00,,,0.00,VWS V13.01,2013-04-23 17:20:00,
2013-04-23 13:22:00,45.5,40.7,24.16,NNE,33,5.0,9.0,83,0.00,,,0.00,VWS V13.01,2013-04-23 17:22:00,
2013-04-23 13:23:00,45.6,40.7,24.16,NE,35,2.0,9.0,83,0.00,,,0.00,VWS V13.01,2013-04-23 17:23:00,
2013-04-23 13:25:00,45.6,40.7,24.16,NNE,14,5.0,9.0,83,0.00,,,0.00,VWS V13.01,2013-04-23 17:25:00,
2013-04-23 13:27:00,45.7,40.5,24.15,NNE,17,6.0,9.0,82,0.00,,,0.00,VWS V13.01,2013-04-23 17:27:00,
2013-04-23 13:28:00,45.7,40.5,24.16,NNE,17,2.0,9.0,82,0.00,,,0.00,VWS V13.01,2013-04-23 17:28:00,
2013-04-23 13:30:00,45.8,40.6,24.16,NE,38,0.0,9.0,82,0.00,,,0.00,VWS V13.01,2013-04-23 17:30:00,
2013-04-23 13:32:00,45.9,40.7,24.15,NNE,21,5.0,9.0,82,0.00,,,0.00,VWS V13.01,2013-04-23 17:32:00,
2013-04-23 13:33:00,45.9,40.7,24.16,NNE,15,5.0,9.0,82,0.00,,,0.00,VWS V13.01,2013-04-23 17:33:00,
2013-04-23 13:34:00,45.9,40.7,24.16,North,11,2.0,9.0,82,0.00,,,0.00,VWS V13.01,2013-04-23 17:34:00,
2013-04-23 13:35:00,45.9,40.7,24.14,East,88,0.0,9.0,82,0.00,,,0.00,VWS V13.01,2013-04-23 17:35:00,
2013-04-23 13:37:00,46.0,40.8,24.15,NNE,13,2.0,9.0,82,0.00,,,0.00,VWS V13.01,2013-04-23 17:37:00,
2013-04-23 13:38:00,46.0,40.8,24.16,NNE,13,4.0,9.0,82,0.00,,,0.00,VWS V13.01,2013-04-23 17:38:00,
2013-04-23 13:39:00,46.0,40.8,24.16,NNE,13,0.0,9.0,82,0.00,,,0.00,VWS V13.01,2013-04-23 17:39:00,
2013-04-23 13:40:00,46.0,40.8,24.16,NNE,26,6.0,9.0,82,0.00,,,0.00,VWS V13.01,2013-04-23 17:40:00,
2013-04-23 13:43:00,46.1,40.6,24.15,NNE,21,3.0,9.0,81,0.00,,,0.00,VWS V13.01,2013-04-23 17:43:00,
2013-04-23 13:44:00,46.2,41.0,24.15,NNE,21,0.0,9.0,82,0.00,,,0.00,VWS V13.01,2013-04-23 17:44:00,
2013-04-23 13:45:00,46.2,41.0,24.15,North,10,0.0,9.0,82,0.00,,,0.00,VWS V13.01,2013-04-23 17:45:00,
2013-04-23 13:46:00,46.2,41.0,24.15,North,10,0.0,9.0,82,0.00,,,0.00,VWS V13.01,2013-04-23 17:46:00,
2013-04-23 13:48:00,46.3,40.8,24.15,NNW,331,0.0,9.0,81,0.00,,,0.00,VWS V13.01,2013-04-23 17:48:00,
2013-04-23 13:49:00,46.4,40.9,24.14,NNW,333,2.0,9.0,81,0.00,,,0.00,VWS V13.01,2013-04-23 17:49:00,
2013-04-23 13:50:00,46.4,40.9,24.14,NW,317,2.0,9.0,81,0.00,,,0.00,VWS V13.01,2013-04-23 17:50:00,
2013-04-23 13:51:00,46.4,40.9,24.15,North,350,2.0,9.0,81,0.00,,,0.00,VWS V13.01,2013-04-23 17:51:00,
2013-04-23 13:53:00,46.5,41.0,24.15,NNW,338,4.0,9.0,81,0.00,,,0.00,VWS V13.01,2013-04-23 17:53:00,
2013-04-23 13:54:00,46.5,41.0,24.13,NNW,337,0.0,9.0,81,0.00,,,0.00,VWS V13.01,2013-04-23 17:54:00,
2013-04-23 13:55:00,46.5,41.0,24.14,NNW,336,2.0,9.0,81,0.00,,,0.00,VWS V13.01,2013-04-23 17:55:00,
2013-04-23 13:56:00,46.5,41.0,24.15,NNW,336,0.0,9.0,81,0.00,,,0.00,VWS V13.01,2013-04-23 17:56:00,
2013-04-23 13:58:00,46.5,41.0,24.15,NNW,346,4.0,9.0,81,0.00,,,0.00,VWS V13.01,2013-04-23 17:58:00,
2013-04-23 13:59:00,46.5,41.0,24.14,NNE,32,5.0,9.0,81,0.00,,,0.00,VWS V13.01,2013-04-23 17:59:00,
2013-04-23 14:00:00,46.5,40.7,24.14,NNE,22,0.0,9.0,80,0.00,,,0.00,VWS V13.01,2013-04-23 18:00:00,
2013-04-23 14:01:00,46.6,40.8,24.14,NNW,341,2.0,9.0,80,0.00,,,0.00,VWS V13.01,2013-04-23 18:01:00,
2013-04-23 14:03:00,46.6,41.1,24.13,North,355,6.0,9.0,81,0.00,,,0.00,VWS V13.01,2013-04-23 18:03:00,
2013-04-23 14:04:00,46.6,40.8,24.14,NNE,16,5.0,7.0,80,0.00,,,0.00,VWS V13.01,2013-04-23 18:04:00,
2013-04-23 14:05:00,46.7,40.9,24.14,NW,326,2.0,7.0,80,0.00,,,0.00,VWS V13.01,2013-04-23 18:05:00,
2013-04-23 14:06:00,46.7,40.9,24.14,North,349,3.0,7.0,80,0.00,,,0.00,VWS V13.01,2013-04-23 18:06:00,
2013-04-23 14:08:00,46.7,40.9,24.16,NW,325,4.0,8.0,80,0.00,,,0.00,VWS V13.01,2013-04-23 18:08:00,
2013-04-23 14:09:00,46.7,40.9,24.15,NNW,336,1.0,8.0,80,0.00,,,0.00,VWS V13.01,2013-04-23 18:09:00,
2013-04-23 14:10:00,46.7,40.9,24.16,NE,34,4.0,8.0,80,0.00,,,0.00,VWS V13.01,2013-04-23 18:10:00,
2013-04-23 14:11:00,46.7,40.9,24.15,NW,319,2.0,8.0,80,0.00,,,0.00,VWS V13.01,2013-04-23 18:11:00,
2013-04-23 14:13:00,46.7,40.9,24.15,NNE,21,2.0,8.0,80,0.00,,,0.00,VWS V13.01,2013-04-23 18:13:00,
2013-04-23 14:14:00,46.7,40.9,24.15,NNE,21,0.0,8.0,80,0.00,,,0.00,VWS V13.01,2013-04-23 18:14:00,
2013-04-23 14:16:00,46.8,41.0,24.14,NNE,22,2.0,8.0,80,0.00,,,0.00,VWS V13.01,2013-04-23 18:16:00,
2013-04-23 14:17:00,46.8,41.0,24.14,NNE,27,5.0,8.0,80,0.00,,,0.00,VWS V13.01,2013-04-23 18:17:00,
2013-04-23 14:18:00,46.8,40.6,24.14,NNE,29,2.0,8.0,79,0.00,,,0.00,VWS V13.01,2013-04-23 18:18:00,
2013-04-23 14:19:00,46.9,40.7,24.14,NNE,29,0.0,8.0,79,0.00,,,0.00,VWS V13.01,2013-04-23 18:19:00,
2013-04-23 14:21:00,46.9,41.1,24.14,NNE,26,0.0,8.0,80,0.00,,,0.00,VWS V13.01,2013-04-23 18:21:00,
2013-04-23 14:22:00,46.9,41.1,24.14,NNE,27,0.0,8.0,80,0.00,,,0.00,VWS V13.01,2013-04-23 18:22:00,
2013-04-23 14:23:00,47.0,41.2,24.15,ENE,59,0.0,8.0,80,0.00,,,0.00,VWS V13.01,2013-04-23 18:23:00,
2013-04-23 14:24:00,47.0,40.8,24.15,North,5,2.0,8.0,79,0.00,,,0.00,VWS V13.01,2013-04-23 18:24:00,
2013-04-23 14:26:00,47.0,40.8,24.16,ENE,76,0.0,8.0,79,0.00,,,0.00,VWS V13.01,2013-04-23 18:26:00,
2013-04-23 14:27:00,47.0,40.8,24.15,ENE,75,2.0,8.0,79,0.00,,,0.00,VWS V13.01,2013-04-23 18:27:00,
2013-04-23 14:28:00,47.0,40.8,24.16,NE,38,2.0,8.0,79,0.00,,,0.00,VWS V13.01,2013-04-23 18:28:00,
2013-04-23 14:29:00,47.1,40.9,24.16,NNE,14,2.0,8.0,79,0.00,,,0.00,VWS V13.01,2013-04-23 18:29:00,
2013-04-23 14:30:00,47.1,40.9,24.16,NNE,15,2.0,8.0,79,0.00,,,0.00,VWS V13.01,2013-04-23 18:30:00,
2013-04-23 14:31:00,47.2,41.0,24.16,NNE,15,0.0,8.0,79,0.00,,,0.00,VWS V13.01,2013-04-23 18:31:00,
2013-04-23 14:32:00,47.2,41.0,24.16,NNE,15,1.0,8.0,79,0.00,,,0.00,VWS V13.01,2013-04-23 18:32:00,
2013-04-23 14:33:00,47.3,41.1,24.15,North,5,2.0,8.0,79,0.00,,,0.00,VWS V13.01,2013-04-23 18:33:00,
2013-04-23 14:34:00,47.4,41.2,24.16,North,360,0.0,8.0,79,0.00,,,0.00,VWS V13.01,2013-04-23 18:34:00,
2013-04-23 14:35:00,47.4,41.2,24.16,North,360,0.0,8.0,79,0.00,,,0.00,VWS V13.01,2013-04-23 18:35:00,
2013-04-23 14:36:00,47.4,41.2,24.15,NW,314,3.0,8.0,79,0.00,,,0.00,VWS V13.01,2013-04-23 18:36:00,
2013-04-23 14:37:00,47.5,41.3,24.15,North,360,4.0,8.0,79,0.00,,,0.00,VWS V13.01,2013-04-23 18:37:00,
2013-04-23 14:39:00,47.6,41.4,24.14,North,360,0.0,8.0,79,0.00,,,0.00,VWS V13.01,2013-04-23 18:39:00,
2013-04-23 14:40:00,47.6,41.1,24.15,North,11,1.0,8.0,78,0.00,,,0.00,VWS V13.01,2013-04-23 18:40:00,
2013-04-23 14:41:00,47.7,41.2,24.14,NNE,30,4.0,8.0,78,0.00,,,0.00,VWS V13.01,2013-04-23 18:41:00,
2013-04-23 14:42:00,47.7,41.2,24.14,NNE,30,0.0,8.0,78,0.00,,,0.00,VWS V13.01,2013-04-23 18:42:00,
2013-04-23 14:44:00,47.8,41.3,24.15,NNW,333,7.0,9.0,78,0.00,,,0.00,VWS V13.01,2013-04-23 18:44:00,
2013-04-23 14:45:00,47.8,41.0,24.14,North,355,0.0,9.0,77,0.00,,,0.00,VWS V13.01,2013-04-23 18:45:00,
2013-04-23 14:47:00,47.8,41.3,24.14,NNE,13,1.0,9.0,78,0.00,,,0.00,VWS V13.01,2013-04-23 18:47:00,
2013-04-23 14:49:00,47.8,41.0,24.15,NNE,18,2.0,9.0,77,0.00,,,0.00,VWS V13.01,2013-04-23 18:49:00,
2013-04-23 14:50:00,47.8,41.0,24.14,NNE,14,4.0,9.0,77,0.00,,,0.00,VWS V13.01,2013-04-23 18:50:00,
2013-04-23 14:52:00,47.8,41.0,24.14,NNE,14,1.0,9.0,77,0.00,,,0.00,VWS V13.01,2013-04-23 18:52:00,
2013-04-23 14:54:00,47.8,41.0,24.15,NNE,29,0.0,9.0,77,0.00,,,0.00,VWS V13.01,2013-04-23 18:54:00,
2013-04-23 14:55:00,47.8,41.0,24.14,NNE,29,0.0,9.0,77,0.00,,,0.00,VWS V13.01,2013-04-23 18:55:00,
2013-04-23 14:56:00,47.8,41.0,24.15,NNE,29,3.0,9.0,77,0.00,,,0.00,VWS V13.01,2013-04-23 18:56:00,
2013-04-23 14:57:00,47.8,41.0,24.15,NNE,29,0.0,9.0,77,0.00,,,0.00,VWS V13.01,2013-04-23 18:57:00,
2013-04-23 14:59:00,47.9,41.4,24.15,NNE,29,0.0,9.0,78,0.00,,,0.00,VWS V13.01,2013-04-23 18:59:00,
2013-04-23 15:00:00,47.9,41.0,24.15,East,91,2.0,9.0,77,0.00,,,0.00,VWS V13.01,2013-04-23 19:00:00,
2013-04-23 15:01:00,47.9,41.0,24.15,NNW,338,4.0,9.0,77,0.00,,,0.00,VWS V13.01,2013-04-23 19:01:00,
2013-04-23 15:02:00,47.9,41.0,24.16,NNW,338,0.0,9.0,77,0.00,,,0.00,VWS V13.01,2013-04-23 19:02:00,
2013-04-23 15:04:00,48.1,41.2,24.16,NNW,348,5.0,7.0,77,0.00,,,0.00,VWS V13.01,2013-04-23 19:04:00,
2013-04-23 15:06:00,48.1,41.2,24.16,NE,36,0.0,7.0,77,0.00,,,0.00,VWS V13.01,2013-04-23 19:06:00,
2013-04-23 15:07:00,48.1,41.2,24.16,NW,317,5.0,7.0,77,0.00,,,0.00,VWS V13.01,2013-04-23 19:07:00,
2013-04-23 15:08:00,48.2,41.3,24.16,NW,317,0.0,7.0,77,0.00,,,0.00,VWS V13.01,2013-04-23 19:08:00,
2013-04-23 15:09:00,48.2,41.3,24.16,NNW,342,3.0,7.0,77,0.00,,,0.00,VWS V13.01,2013-04-23 19:09:00,
2013-04-23 15:11:00,48.2,41.3,24.15,East,82,1.0,7.0,77,0.00,,,0.00,VWS V13.01,2013-04-23 19:11:00,
2013-04-23 15:12:00,48.3,41.4,24.15,NNE,23,0.0,7.0,77,0.00,,,0.00,VWS V13.01,2013-04-23 19:12:00,
2013-04-23 15:13:00,48.3,41.4,24.15,NNE,23,0.0,7.0,77,0.00,,,0.00,VWS V13.01,2013-04-23 19:13:00,
2013-04-23 15:14:00,48.3,41.4,24.15,NNE,23,0.0,7.0,77,0.00,,,0.00,VWS V13.01,2013-04-23 19:14:00,
2013-04-23 15:16:00,48.3,41.4,24.16,NNE,23,0.0,7.0,77,0.00,,,0.00,VWS V13.01,2013-04-23 19:16:00,
2013-04-23 15:18:00,48.4,41.5,24.14,NNW,344,2.0,7.0,77,0.00,,,0.00,VWS V13.01,2013-04-23 19:18:00,
2013-04-23 15:19:00,48.4,41.2,24.15,NNW,333,4.0,7.0,76,0.00,,,0.00,VWS V13.01,2013-04-23 19:19:00,
2013-04-23 15:21:00,48.5,41.3,24.15,NNE,25,1.0,7.0,76,0.00,,,0.00,VWS V13.01,2013-04-23 19:21:00,
2013-04-23 15:22:00,48.5,41.3,24.14,North,360,5.0,7.0,76,0.00,,,0.00,VWS V13.01,2013-04-23 19:22:00,
2013-04-23 15:23:00,48.5,41.3,24.14,North,10,1.0,8.0,76,0.00,,,0.00,VWS V13.01,2013-04-23 19:23:00,
2013-04-23 15:24:00,48.6,41.4,24.14,NE,34,4.0,8.0,76,0.00,,,0.00,VWS V13.01,2013-04-23 19:24:00,
2013-04-23 15:26:00,48.6,41.4,24.15,NNE,15,4.0,8.0,76,0.00,,,0.00,VWS V13.01,2013-04-23 19:26:00,
2013-04-23 15:27:00,48.6,41.4,24.16,North,5,4.0,8.0,76,0.00,,,0.00,VWS V13.01,2013-04-23 19:27:00,
2013-04-23 15:28:00,48.6,41.4,24.14,North,360,2.0,8.0,76,0.00,,,0.00,VWS V13.01,2013-04-23 19:28:00,
2013-04-23 15:30:00,48.6,41.4,24.13,NNE,22,0.0,8.0,76,0.00,,,0.00,VWS V13.01,2013-04-23 19:30:00,
2013-04-23 15:32:00,48.6,41.4,24.14,NNE,18,6.0,8.0,76,0.00,,,0.00,VWS V13.01,2013-04-23 19:32:00,
2013-04-23 15:33:00,48.6,41.4,24.13,NNE,24,5.0,8.0,76,0.00,,,0.00,VWS V13.01,2013-04-23 19:33:00,
2013-04-23 15:36:00,48.6,41.4,24.13,NW,321,3.0,8.0,76,0.00,,,0.00,VWS V13.01,2013-04-23 19:36:00,
2013-04-23 15:37:00,48.6,41.4,24.13,North,11,6.0,8.0,76,0.00,,,0.00,VWS V13.01,2013-04-23 19:37:00,
2013-04-23 15:38:00,48.6,41.4,24.13,North,10,2.0,8.0,76,0.00,,,0.00,VWS V13.01,2013-04-23 19:38:00,
2013-04-23 15:41:00,48.6,41.4,24.14,NE,42,0.0,8.0,76,0.00,,,0.00,VWS V13.01,2013-04-23 19:41:00,
2013-04-23 15:43:00,48.7,41.5,24.14,NE,42,0.0,8.0,76,0.00,,,0.00,VWS V13.01,2013-04-23 19:43:00,
2013-04-23 15:44:00,48.7,41.5,24.13,NE,43,2.0,8.0,76,0.00,,,0.00,VWS V13.01,2013-04-23 19:44:00,
2013-04-23 15:46:00,48.7,41.5,24.13,North,360,2.0,8.0,76,0.00,,,0.00,VWS V13.01,2013-04-23 19:46:00,
2013-04-23 15:48:00,48.7,41.5,24.13,NE,35,2.0,8.0,76,0.00,,,0.00,VWS V13.01,2013-04-23 19:48:00,
2013-04-23 15:49:00,48.8,41.6,24.14,NE,34,0.0,8.0,76,0.00,,,0.00,VWS V13.01,2013-04-23 19:49:00,
2013-04-23 15:51:00,48.8,41.6,24.14,NNW,348,3.0,8.0,76,0.00,,,0.00,VWS V13.01,2013-04-23 19:51:00,
2013-04-23 15:53:00,48.9,41.7,24.14,North,5,0.0,8.0,76,0.00,,,0.00,VWS V13.01,2013-04-23 19:53:00,
2013-04-23 15:54:00,48.9,41.7,24.13,North,5,0.0,8.0,76,0.00,,,0.00,VWS V13.01,2013-04-23 19:54:00,
2013-04-23 15:56:00,49.1,41.9,24.14,NNE,30,5.0,8.0,76,0.00,,,0.00,VWS V13.01,2013-04-23 19:56:00,
2013-04-23 15:58:00,49.1,41.5,24.14,North,355,0.0,8.0,75,0.00,,,0.00,VWS V13.01,2013-04-23 19:58:00,
2013-04-23 15:59:00,49.2,41.6,24.15,NE,34,0.0,8.0,75,0.00,,,0.00,VWS V13.01,2013-04-23 19:59:00,
2013-04-23 16:02:00,49.3,41.7,24.14,ENE,76,0.0,8.0,75,0.00,,,0.00,VWS V13.01,2013-04-23 20:02:00,
2013-04-23 16:03:00,49.3,41.7,24.14,ENE,77,0.0,8.0,75,0.00,,,0.00,VWS V13.01,2013-04-23 20:03:00,
2013-04-23 16:04:00,49.4,41.8,24.14,ENE,76,0.0,1.0,75,0.00,,,0.00,VWS V13.01,2013-04-23 20:04:00,
2013-04-23 16:05:00,49.4,41.8,24.16,NE,38,4.0,4.0,75,0.00,,,0.00,VWS V13.01,2013-04-23 20:05:00,
2013-04-23 16:07:00,49.5,41.9,24.14,NNE,31,2.0,5.0,75,0.00,,,0.00,VWS V13.01,2013-04-23 20:07:00,
2013-04-23 16:08:00,49.5,41.9,24.15,NNE,30,3.0,5.0,75,0.00,,,0.00,VWS V13.01,2013-04-23 20:08:00,
2013-04-23 16:09:00,49.6,41.7,24.15,NNE,19,6.0,7.0,74,0.00,,,0.00,VWS V13.01,2013-04-23 20:09:00,
2013-04-23 16:10:00,49.6,41.7,24.14,NNE,15,3.0,7.0,74,0.00,,,0.00,VWS V13.01,2013-04-23 20:10:00,
2013-04-23 16:12:00,49.7,41.8,24.14,NNE,20,6.0,7.0,74,0.00,,,0.00,VWS V13.01,2013-04-23 20:12:00,
2013-04-23 16:13:00,49.7,41.8,24.14,North,355,4.0,7.0,74,0.00,,,0.00,VWS V13.01,2013-04-23 20:13:00,
2013-04-23 16:15:00,49.7,41.8,24.14,NW,315,2.0,7.0,74,0.00,,,0.00,VWS V13.01,2013-04-23 20:15:00,
2013-04-23 16:17:00,49.7,41.8,24.14,NNE,13,5.0,7.0,74,0.00,,,0.00,VWS V13.01,2013-04-23 20:17:00,
2013-04-23 16:18:00,49.7,41.8,24.14,NW,307,0.0,7.0,74,0.00,,,0.00,VWS V13.01,2013-04-23 20:18:00,
2013-04-23 16:20:00,49.7,41.8,24.14,NW,315,0.0,7.0,74,0.00,,,0.00,VWS V13.01,2013-04-23 20:20:00,
2013-04-23 16:23:00,49.7,42.1,24.15,NNE,30,2.0,7.0,75,0.00,,,0.00,VWS V13.01,2013-04-23 20:23:00,
2013-04-23 16:25:00,49.7,41.8,24.16,NNW,331,0.0,7.0,74,0.00,,,0.00,VWS V13.01,2013-04-23 20:25:00,
2013-04-23 16:28:00,49.7,42.1,24.15,NNW,330,4.0,7.0,75,0.00,,,0.00,VWS V13.01,2013-04-23 20:28:00,
2013-04-23 16:29:00,49.7,42.1,24.15,NNW,330,6.0,7.0,75,0.00,,,0.00,VWS V13.01,2013-04-23 20:29:00,
2013-04-23 16:30:00,49.7,41.8,24.15,NNW,337,0.0,7.0,74,0.00,,,0.00,VWS V13.01,2013-04-23 20:30:00,
2013-04-23 16:33:00,49.8,41.9,24.15,NW,323,4.0,7.0,74,0.00,,,0.00,VWS V13.01,2013-04-23 20:33:00,
2013-04-23 16:34:00,49.8,41.9,24.15,NW,324,2.0,7.0,74,0.00,,,0.00,VWS V13.01,2013-04-23 20:34:00,
2013-04-23 16:35:00,49.8,41.9,24.15,NW,324,0.0,7.0,74,0.00,,,0.00,VWS V13.01,2013-04-23 20:35:00,
2013-04-23 16:36:00,49.9,42.0,24.15,NW,324,1.0,7.0,74,0.00,,,0.00,VWS V13.01,2013-04-23 20:36:00,
2013-04-23 16:38:00,49.9,42.3,24.14,NW,325,0.0,7.0,75,0.00,,,0.00,VWS V13.01,2013-04-23 20:38:00,
2013-04-23 16:39:00,50.0,42.4,24.14,NW,325,4.0,7.0,75,0.00,,,0.00,VWS V13.01,2013-04-23 20:39:00,
2013-04-23 16:40:00,50.0,42.0,24.14,NNE,30,5.0,7.0,74,0.00,,,0.00,VWS V13.01,2013-04-23 20:40:00,
2013-04-23 16:41:00,50.1,42.2,24.15,NNE,29,0.0,7.0,74,0.00,,,0.00,VWS V13.01,2013-04-23 20:41:00,
2013-04-23 16:43:00,50.1,42.2,24.15,NW,318,2.0,7.0,74,0.00,,,0.00,VWS V13.01,2013-04-23 20:43:00,
2013-04-23 16:44:00,50.1,42.2,24.15,NNW,333,5.0,7.0,74,0.00,,,0.00,VWS V13.01,2013-04-23 20:44:00,
2013-04-23 16:45:00,50.2,42.2,24.15,NNW,333,0.0,7.0,74,0.00,,,0.00,VWS V13.01,2013-04-23 20:45:00,
2013-04-23 16:47:00,50.2,42.2,24.13,North,11,1.0,7.0,74,0.00,,,0.00,VWS V13.01,2013-04-23 20:47:00,
2013-04-23 16:48:00,50.3,42.3,24.15,NNW,345,2.0,7.0,74,0.00,,,0.00,VWS V13.01,2013-04-23 20:48:00,
2013-04-23 16:49:00,50.3,42.3,24.15,NNW,345,1.0,7.0,74,0.00,,,0.00,VWS V13.01,2013-04-23 20:49:00,
2013-04-23 16:50:00,50.3,42.3,24.16,NNW,345,0.0,7.0,74,0.00,,,0.00,VWS V13.01,2013-04-23 20:50:00,
2013-04-23 16:52:00,50.4,42.4,24.16,NNW,346,2.0,7.0,74,0.00,,,0.00,VWS V13.01,2013-04-23 20:52:00,
2013-04-23 16:53:00,50.4,42.4,24.15,NE,37,3.0,7.0,74,0.00,,,0.00,VWS V13.01,2013-04-23 20:53:00,
2013-04-23 16:54:00,50.4,42.4,24.15,NNE,28,2.0,7.0,74,0.00,,,0.00,VWS V13.01,2013-04-23 20:54:00,
2013-04-23 16:55:00,50.4,42.4,24.16,NNE,28,0.0,7.0,74,0.00,,,0.00,VWS V13.01,2013-04-23 20:55:00,
2013-04-23 16:57:00,50.4,42.4,24.16,NNE,28,0.0,7.0,74,0.00,,,0.00,VWS V13.01,2013-04-23 20:57:00,
2013-04-23 16:59:00,50.5,42.5,24.14,NNW,346,0.0,7.0,74,0.00,,,0.00,VWS V13.01,2013-04-23 20:59:00,
2013-04-23 17:00:00,50.5,42.5,24.15,NNW,345,0.0,7.0,74,0.00,,,0.00,VWS V13.01,2013-04-23 21:00:00,
2013-04-23 17:02:00,50.6,42.6,24.16,NNW,331,0.0,7.0,74,0.00,,,0.00,VWS V13.01,2013-04-23 21:02:00,
2013-04-23 17:04:00,50.6,42.6,24.16,NNW,329,0.0,3.0,74,0.00,,,0.00,VWS V13.01,2013-04-23 21:04:00,
2013-04-23 17:05:00,50.7,42.4,24.17,NNW,342,0.0,3.0,73,0.00,,,0.00,VWS V13.01,2013-04-23 21:05:00,
2013-04-23 17:07:00,50.7,42.4,24.17,NW,317,2.0,8.0,73,0.00,,,0.00,VWS V13.01,2013-04-23 21:07:00,
2013-04-23 17:09:00,50.7,42.4,24.18,NW,317,0.0,8.0,73,0.00,,,0.00,VWS V13.01,2013-04-23 21:09:00,
2013-04-23 17:10:00,50.7,42.4,24.17,North,9,6.0,8.0,73,0.00,,,0.00,VWS V13.01,2013-04-23 21:10:00,
2013-04-23 17:11:00,50.7,42.4,24.15,NNE,24,4.0,8.0,73,0.00,,,0.00,VWS V13.01,2013-04-23 21:11:00,
2013-04-23 17:12:00,50.7,42.4,24.18,NW,323,2.0,8.0,73,0.00,,,0.00,VWS V13.01,2013-04-23 21:12:00,
2013-04-23 17:14:00,50.6,42.3,24.17,NW,323,3.0,8.0,73,0.00,,,0.00,VWS V13.01,2013-04-23 21:14:00,
2013-04-23 17:15:00,50.6,42.3,24.19,NW,323,0.0,8.0,73,0.00,,,0.00,VWS V13.01,2013-04-23 21:15:00,
2013-04-23 17:16:00,50.6,42.3,24.18,North,360,2.0,8.0,73,0.00,,,0.00,VWS V13.01,2013-04-23 21:16:00,
2013-04-23 17:17:00,50.6,42.3,24.19,NNE,12,2.0,8.0,73,0.00,,,0.00,VWS V13.01,2013-04-23 21:17:00,
2013-04-23 17:19:00,50.6,42.3,24.19,North,355,2.0,8.0,73,0.00,,,0.00,VWS V13.01,2013-04-23 21:19:00,
2013-04-23 17:20:00,50.6,42.3,24.17,NW,325,2.0,8.0,73,0.00,,,0.00,VWS V13.01,2013-04-23 21:20:00,
2013-04-23 17:21:00,50.7,42.4,24.18,NW,326,0.0,8.0,73,0.00,,,0.00,VWS V13.01,2013-04-23 21:21:00,
2013-04-23 17:23:00,50.7,42.4,24.17,NE,44,0.0,8.0,73,0.00,,,0.00,VWS V13.01,2013-04-23 21:23:00,
2013-04-23 17:24:00,50.7,42.4,24.17,NE,44,2.0,8.0,73,0.00,,,0.00,VWS V13.01,2013-04-23 21:24:00,
2013-04-23 17:25:00,50.7,42.4,24.17,NNE,28,2.0,8.0,73,0.00,,,0.00,VWS V13.01,2013-04-23 21:25:00,
2013-04-23 17:26:00,50.7,42.7,24.17,NNE,28,0.0,8.0,74,0.00,,,0.00,VWS V13.01,2013-04-23 21:26:00,
2013-04-23 17:28:00,50.8,42.8,24.18,NNE,28,4.0,8.0,74,0.00,,,0.00,VWS V13.01,2013-04-23 21:28:00,
2013-04-23 17:29:00,50.8,42.8,24.18,NNE,24,4.0,8.0,74,0.00,,,0.00,VWS V13.01,2013-04-23 21:29:00,
2013-04-23 17:30:00,50.8,42.5,24.18,NNE,24,0.0,8.0,73,0.00,,,0.00,VWS V13.01,2013-04-23 21:30:00,
2013-04-23 17:31:00,50.9,43.6,24.18,NNW,327,6.0,8.0,76,0.00,,,0.00,VWS V13.01,2013-04-23 21:31:00,
2013-04-23 17:33:00,51.0,42.7,24.20,NNW,330,2.0,8.0,73,0.00,,,0.00,VWS V13.01,2013-04-23 21:33:00,
2013-04-23 17:34:00,51.0,42.7,24.19,NNW,330,0.0,8.0,73,0.00,,,0.00,VWS V13.01,2013-04-23 21:34:00,
2013-04-23 17:35:00,51.1,42.8,24.19,NNW,330,3.0,8.0,73,0.00,,,0.00,VWS V13.01,2013-04-23 21:35:00,
2013-04-23 17:37:00,51.2,42.9,24.18,North,10,2.0,8.0,73,0.00,,,0.00,VWS V13.01,2013-04-23 21:37:00,
2013-04-23 17:38:00,51.2,42.9,24.20,North,5,2.0,8.0,73,0.00,,,0.00,VWS V13.01,2013-04-23 21:38:00,
2013-04-23 17:39:00,51.3,43.0,24.19,North,360,0.0,8.0,73,0.00,,,0.00,VWS V13.01,2013-04-23 21:39:00,
2013-04-23 17:40:00,51.4,43.0,24.19,North,360,0.0,8.0,73,0.00,,,0.00,VWS V13.01,2013-04-23 21:40:00,
2013-04-23 17:42:00,51.5,43.1,24.18,North,360,2.0,8.0,73,0.00,,,0.00,VWS V13.01,2013-04-23 21:42:00,
2013-04-23 17:44:00,51.6,43.2,24.19,NNE,22,2.0,8.0,73,0.00,,,0.00,VWS V13.01,2013-04-23 21:44:00,
2013-04-23 17:46:00,51.7,43.0,24.20,NNE,14,1.0,8.0,72,0.00,,,0.00,VWS V13.01,2013-04-23 21:46:00,
2013-04-23 17:47:00,51.8,43.1,24.20,NNE,14,4.0,8.0,72,0.00,,,0.00,VWS V13.01,2013-04-23 21:47:00,
2013-04-23 17:49:00,51.9,43.2,24.21,NNW,333,0.0,8.0,72,0.00,,,0.00,VWS V13.01,2013-04-23 21:49:00,
2013-04-23 17:51:00,52.0,43.3,24.20,NE,55,0.0,8.0,72,0.00,,,0.00,VWS V13.01,2013-04-23 21:51:00,
2013-04-23 17:52:00,52.1,43.4,24.19,NNE,19,3.0,8.0,72,0.00,,,0.00,VWS V13.01,2013-04-23 21:52:00,
2013-04-23 17:54:00,52.2,43.5,24.19,NNW,341,0.0,8.0,72,0.00,,,0.00,VWS V13.01,2013-04-23 21:54:00,
2013-04-23 17:55:00,52.3,43.5,24.19,NNW,341,0.0,8.0,72,0.00,,,0.00,VWS V13.01,2013-04-23 21:55:00,
2013-04-23 17:56:00,52.3,43.5,24.52,ESE,113,0.0,8.0,72,0.00,,,0.00,VWS V13.01,2013-04-23 21:56:00,
2013-04-23 17:58:00,52.4,43.3,24.52,North,10,4.0,8.0,71,0.00,,,0.00,VWS V13.01,2013-04-23 21:58:00,
2013-04-23 17:59:00,52.5,43.4,24.19,NNW,334,5.0,8.0,71,0.00,,,0.00,VWS V13.01,2013-04-23 21:59:00,
2013-04-23 18:00:00,52.5,43.4,24.19,NNE,16,2.0,8.0,71,0.00,,,0.00,VWS V13.01,2013-04-23 22:00:00,
2013-04-23 18:01:00,52.5,43.4,24.18,North,360,4.0,8.0,71,0.00,,,0.00,VWS V13.01,2013-04-23 22:01:00,
2013-04-23 18:03:00,52.4,43.3,24.18,NNE,13,6.0,8.0,71,0.00,,,0.00,VWS V13.01,2013-04-23 22:03:00,
2013-04-23 18:04:00,52.4,43.3,24.18,North,355,4.0,6.0,71,0.00,,,0.00,VWS V13.01,2013-04-23 22:04:00,
2013-04-23 18:05:00,52.4,43.3,24.18,NNE,28,0.0,6.0,71,0.00,,,0.00,VWS V13.01,2013-04-23 22:05:00,
2013-04-23 18:06:00,52.4,43.3,24.18,NNE,14,5.0,6.0,71,0.00,,,0.00,VWS V13.01,2013-04-23 22:06:00,
2013-04-23 18:08:00,52.3,43.2,24.18,NNE,28,0.0,6.0,71,0.00,,,0.00,VWS V13.01,2013-04-23 22:08:00,
2013-04-23 18:09:00,52.3,43.2,24.18,North,11,0.0,6.0,71,0.00,,,0.00,VWS V13.01,2013-04-23 22:09:00,
2013-04-23 18:10:00,52.3,43.2,24.18,North,11,0.0,6.0,71,0.00,,,0.00,VWS V13.01,2013-04-23 22:10:00,
2013-04-23 18:11:00,52.3,43.2,24.18,North,11,0.0,6.0,71,0.00,,,0.00,VWS V13.01,2013-04-23 22:11:00,
2013-04-23 18:13:00,52.3,43.2,24.18,North,11,0.0,6.0,71,0.00,,,0.00,VWS V13.01,2013-04-23 22:13:00,
2013-04-23 18:15:00,52.2,43.1,24.18,North,11,1.0,6.0,71,0.00,,,0.00,VWS V13.01,2013-04-23 22:15:00,
2013-04-23 18:16:00,52.2,43.1,24.85,North,11,0.0,6.0,71,0.00,,,0.00,VWS V13.01,2013-04-23 22:16:00,
2013-04-23 18:17:00,52.2,43.1,24.85,North,11,0.0,6.0,71,0.00,,,0.00,VWS V13.01,2013-04-23 22:17:00,
2013-04-23 18:18:00,52.2,43.1,24.54,WNW,300,1.0,6.0,71,0.00,,,0.00,VWS V13.01,2013-04-23 22:18:00,
2013-04-23 18:20:00,52.1,43.4,24.54,North,351,0.0,6.0,72,0.00,,,0.00,VWS V13.01,2013-04-23 22:20:00,
2013-04-23 18:21:00,52.1,43.4,24.54,NW,306,2.0,6.0,72,0.00,,,0.00,VWS V13.01,2013-04-23 22:21:00,
2013-04-23 18:22:00,52.1,43.4,24.54,NNW,336,2.0,6.0,72,0.00,,,0.00,VWS V13.01,2013-04-23 22:22:00,
2013-04-23 18:23:00,52.2,43.5,24.54,NNW,336,0.0,6.0,72,0.00,,,0.00,VWS V13.01,2013-04-23 22:23:00,
2013-04-23 18:25:00,52.2,43.5,24.54,North,10,2.0,6.0,72,0.00,,,0.00,VWS V13.01,2013-04-23 22:25:00,
2013-04-23 18:26:00,52.2,43.5,24.54,North,10,0.0,6.0,72,0.00,,,0.00,VWS V13.01,2013-04-23 22:26:00,
2013-04-23 18:27:00,52.2,43.5,24.54,North,10,0.0,6.0,72,0.00,,,0.00,VWS V13.01,2013-04-23 22:27:00,
2013-04-23 18:28:00,52.3,43.5,24.54,North,10,0.0,6.0,72,0.00,,,0.00,VWS V13.01,2013-04-23 22:28:00,
2013-04-23 18:30:00,52.3,43.5,24.54,NNE,28,1.0,6.0,72,0.00,,,0.00,VWS V13.01,2013-04-23 22:30:00,
2013-04-23 18:31:00,52.3,43.5,24.54,NNE,25,4.0,6.0,72,0.00,,,0.00,VWS V13.01,2013-04-23 22:31:00,
2013-04-23 18:32:00,52.3,43.5,24.54,NNE,25,0.0,6.0,72,0.00,,,0.00,VWS V13.01,2013-04-23 22:32:00,
2013-04-23 18:33:00,52.3,43.5,24.54,NNE,25,0.0,6.0,72,0.00,,,0.00,VWS V13.01,2013-04-23 22:33:00,
2013-04-23 18:35:00,52.3,43.5,24.54,NNW,333,0.0,6.0,72,0.00,,,0.00,VWS V13.01,2013-04-23 22:35:00,
2013-04-23 18:37:00,52.4,43.7,24.54,NNW,333,0.0,6.0,72,0.00,,,0.00,VWS V13.01,2013-04-23 22:37:00,
2013-04-23 18:38:00,52.4,43.7,24.54,North,360,2.0,6.0,72,0.00,,,0.00,VWS V13.01,2013-04-23 22:38:00,
2013-04-23 18:40:00,52.4,43.3,24.54,North,360,0.0,6.0,71,0.00,,,0.00,VWS V13.01,2013-04-23 22:40:00,
2013-04-23 18:42:00,52.4,43.3,24.54,North,355,2.0,6.0,71,0.00,,,0.00,VWS V13.01,2013-04-23 22:42:00,
2013-04-23 18:43:00,52.3,43.2,26.90,North,355,0.0,6.0,71,0.00,,,0.00,VWS V13.01,2013-04-23 22:43:00,
2013-04-23 18:45:00,52.2,43.1,26.90,NNW,346,4.0,8.0,71,0.00,,,0.00,VWS V13.01,2013-04-23 22:45:00,
2013-04-23 18:47:00,52.2,43.1,26.90,NNE,18,1.0,8.0,71,0.00,,,0.00,VWS V13.01,2013-04-23 22:47:00,
2013-04-23 18:49:00,52.1,43.0,26.90,NE,35,0.0,8.0,71,0.00,,,0.00,VWS V13.01,2013-04-23 22:49:00,
2013-04-23 18:50:00,52.1,43.4,26.90,North,10,4.0,8.0,72,0.00,,,0.00,VWS V13.01,2013-04-23 22:50:00,
2013-04-23 18:52:00,52.0,42.9,26.90,NNE,21,1.0,8.0,71,0.00,,,0.00,VWS V13.01,2013-04-23 22:52:00,
2013-04-23 18:54:00,51.9,43.2,26.90,NNE,21,5.0,8.0,72,0.00,,,0.00,VWS V13.01,2013-04-23 22:54:00,
2013-04-23 18:56:00,51.9,43.2,26.90,NNW,330,0.0,8.0,72,0.00,,,0.00,VWS V13.01,2013-04-23 22:56:00,
2013-04-23 18:57:00,51.8,43.1,26.90,NNW,329,0.0,8.0,72,0.00,,,0.00,VWS V13.01,2013-04-23 22:57:00,
2013-04-23 18:58:00,51.8,43.1,26.90,North,11,5.0,8.0,72,0.00,,,0.00,VWS V13.01,2013-04-23 22:58:00,
2013-04-23 18:59:00,51.8,43.1,26.90,North,5,4.0,8.0,72,0.00,,,0.00,VWS V13.01,2013-04-23 22:59:00,
2013-04-23 19:01:00,51.7,43.0,26.90,North,360,1.0,8.0,72,0.00,,,0.00,VWS V13.01,2013-04-23 23:01:00,
2013-04-23 19:02:00,51.7,43.0,26.90,North,360,0.0,8.0,72,0.00,,,0.00,VWS V13.01,2013-04-23 23:02:00,
2013-04-23 19:03:00,51.7,43.0,26.90,North,360,0.0,8.0,72,0.00,,,0.00,VWS V13.01,2013-04-23 23:03:00,
2013-04-23 19:04:00,51.7,43.0,26.90,North,360,1.0,2.0,72,0.00,,,0.00,VWS V13.01,2013-04-23 23:04:00,
2013-04-23 19:06:00,51.6,42.9,26.90,North,360,0.0,2.0,72,0.00,,,0.00,VWS V13.01,2013-04-23 23:06:00,
2013-04-23 19:08:00,51.6,42.9,26.90,NNW,348,1.0,6.0,72,0.00,,,0.00,VWS V13.01,2013-04-23 23:08:00,
2013-04-23 19:09:00,51.5,42.8,26.90,NNW,348,0.0,6.0,72,0.00,,,0.00,VWS V13.01,2013-04-23 23:09:00,
2013-04-23 19:11:00,51.5,43.1,26.90,NNW,346,1.0,6.0,73,0.00,,,0.00,VWS V13.01,2013-04-23 23:11:00,
2013-04-23 19:13:00,51.5,42.8,26.90,NNW,346,0.0,6.0,72,0.00,,,0.00,VWS V13.01,2013-04-23 23:13:00,
2013-04-23 19:14:00,51.4,42.7,26.90,NNW,346,0.0,6.0,72,0.00,,,0.00,VWS V13.01,2013-04-23 23:14:00,
2013-04-23 19:16:00,51.4,43.0,26.90,NNW,346,0.0,6.0,73,0.00,,,0.00,VWS V13.01,2013-04-23 23:16:00,
2013-04-23 19:18:00,51.4,43.0,26.90,NNW,346,0.0,6.0,73,0.00,,,0.00,VWS V13.01,2013-04-23 23:18:00,
2013-04-23 19:20:00,51.3,43.0,26.90,NNW,347,0.0,6.0,73,0.00,,,0.00,VWS V13.01,2013-04-23 23:20:00,
2013-04-23 19:21:00,51.3,43.0,26.90,NNW,347,0.0,6.0,73,0.00,,,0.00,VWS V13.01,2013-04-23 23:21:00,
2013-04-23 19:23:00,51.3,43.0,26.90,NNW,346,0.0,6.0,73,0.00,,,0.00,VWS V13.01,2013-04-23 23:23:00,
2013-04-23 19:25:00,51.2,42.9,26.90,NNW,347,0.0,6.0,73,0.00,,,0.00,VWS V13.01,2013-04-23 23:25:00,
2013-04-23 19:27:00,51.2,42.9,26.90,NNW,346,0.0,6.0,73,0.00,,,0.00,VWS V13.01,2013-04-23 23:27:00,
2013-04-23 19:28:00,51.2,42.9,26.90,NNW,347,0.0,6.0,73,0.00,,,0.00,VWS V13.01,2013-04-23 23:28:00,
2013-04-23 19:29:00,51.1,42.8,26.90,NNW,346,0.0,6.0,73,0.00,,,0.00,VWS V13.01,2013-04-23 23:29:00,
2013-04-23 19:30:00,51.1,42.8,26.90,NNW,347,0.0,6.0,73,0.00,,,0.00,VWS V13.01,2013-04-23 23:30:00,
2013-04-23 19:32:00,51.0,42.7,26.90,NNW,346,0.0,6.0,73,0.00,,,0.00,VWS V13.01,2013-04-23 23:32:00,
2013-04-23 19:33:00,51.0,42.7,26.90,NNW,347,0.0,6.0,73,0.00,,,0.00,VWS V13.01,2013-04-23 23:33:00,
2013-04-23 19:34:00,51.0,42.7,26.90,NNW,346,0.0,6.0,73,0.00,,,0.00,VWS V13.01,2013-04-23 23:34:00,
2013-04-23 19:35:00,51.0,42.7,26.90,NNW,346,1.0,6.0,73,0.00,,,0.00,VWS V13.01,2013-04-23 23:35:00,
2013-04-23 19:37:00,50.9,43.6,26.90,NNW,346,0.0,6.0,76,0.00,,,0.00,VWS V13.01,2013-04-23 23:37:00,
2013-04-23 19:38:00,50.9,42.6,26.90,NNW,347,2.0,6.0,73,0.00,,,0.00,VWS V13.01,2013-04-23 23:38:00,
2013-04-23 19:39:00,50.9,42.6,26.90,NNW,346,2.0,6.0,73,0.00,,,0.00,VWS V13.01,2013-04-23 23:39:00,
2013-04-23 19:41:00,50.8,42.5,26.90,NNW,346,2.0,6.0,73,0.00,,,0.00,VWS V13.01,2013-04-23 23:41:00,
2013-04-23 19:42:00,50.8,42.5,26.90,NNW,346,0.0,6.0,73,0.00,,,0.00,VWS V13.01,2013-04-23 23:42:00,
2013-04-23 19:44:00,50.8,42.8,26.90,NNW,347,1.0,6.0,74,0.00,,,0.00,VWS V13.01,2013-04-23 23:44:00,
2013-04-23 19:47:00,50.8,42.8,26.90,NNE,15,0.0,6.0,74,0.00,,,0.00,VWS V13.01,2013-04-23 23:47:00,
2013-04-23 19:49:00,50.8,42.8,27.39,North,360,0.0,6.0,74,0.00,,,0.00,VWS V13.01,2013-04-23 23:49:00,
2013-04-23 19:52:00,50.7,42.7,27.39,North,360,0.0,6.0,74,0.00,,,0.00,VWS V13.01,2013-04-23 23:52:00,
2013-04-23 19:54:00,50.7,42.7,27.39,North,5,0.0,6.0,74,0.00,,,0.00,VWS V13.01,2013-04-23 23:54:00,
2013-04-23 19:57:00,50.7,42.7,27.39,North,5,0.0,6.0,74,0.00,,,0.00,VWS V13.01,2013-04-23 23:57:00,
2013-04-23 19:59:00,50.7,42.7,27.39,North,360,0.0,6.0,74,0.00,,,0.00,VWS V13.01,2013-04-23 23:59:00,
2013-04-23 20:02:00,50.7,42.7,26.90,NNE,12,0.0,6.0,74,0.00,,,0.00,VWS V13.01,2013-04-24 00:02:00,
2013-04-23 20:04:00,50.7,42.7,26.90,North,11,1.0,2.0,74,0.00,,,0.00,VWS V13.01,2013-04-24 00:04:00,
2013-04-23 20:05:00,50.7,42.7,26.90,NNE,12,0.0,2.0,74,0.00,,,0.00,VWS V13.01,2013-04-24 00:05:00,
2013-04-23 20:07:00,50.8,42.8,26.90,NNE,12,0.0,2.0,74,0.00,,,0.00,VWS V13.01,2013-04-24 00:07:00,
2013-04-23 20:09:00,50.7,42.7,26.90,NNE,12,0.0,2.0,74,0.00,,,0.00,VWS V13.01,2013-04-24 00:09:00,
2013-04-23 20:10:00,50.7,42.7,26.90,NNE,12,0.0,2.0,74,0.00,,,0.00,VWS V13.01,2013-04-24 00:10:00,
2013-04-23 20:12:00,50.7,42.7,26.90,North,11,0.0,2.0,74,0.00,,,0.00,VWS V13.01,2013-04-24 00:12:00,
2013-04-23 20:13:00,50.7,42.7,26.90,North,11,0.0,2.0,74,0.00,,,0.00,VWS V13.01,2013-04-24 00:13:00,
2013-04-23 20:14:00,50.7,42.7,26.90,NNE,12,0.0,2.0,74,0.00,,,0.00,VWS V13.01,2013-04-24 00:14:00,
2013-04-23 20:15:00,50.7,42.7,26.90,NNE,12,0.0,2.0,74,0.00,,,0.00,VWS V13.01,2013-04-24 00:15:00,
2013-04-23 20:17:00,50.6,42.6,28.65,NNE,12,0.0,2.0,74,0.00,,,0.00,VWS V13.01,2013-04-24 00:17:00,
2013-04-23 20:18:00,50.6,42.6,28.65,North,11,0.0,2.0,74,0.00,,,0.00,VWS V13.01,2013-04-24 00:18:00,
2013-04-23 20:20:00,50.6,42.6,28.65,NNE,12,0.0,2.0,74,0.00,,,0.00,VWS V13.01,2013-04-24 00:20:00,
2013-04-23 20:22:00,50.5,42.5,27.39,NNE,12,0.0,2.0,74,0.00,,,0.00,VWS V13.01,2013-04-24 00:22:00,
2013-04-23 20:23:00,50.5,42.5,27.39,North,11,0.0,2.0,74,0.00,,,0.00,VWS V13.01,2013-04-24 00:23:00,
2013-04-23 20:25:00,50.4,42.4,27.39,NNE,12,0.0,2.0,74,0.00,,,0.00,VWS V13.01,2013-04-24 00:25:00,
2013-04-23 20:27:00,50.4,42.4,27.39,East,98,0.0,2.0,74,0.00,,,0.00,VWS V13.01,2013-04-24 00:27:00,
2013-04-23 20:29:00,50.3,42.3,27.39,East,98,0.0,2.0,74,0.00,,,0.00,VWS V13.01,2013-04-24 00:29:00,
2013-04-23 20:30:00,50.3,42.3,27.39,East,98,0.0,2.0,74,0.00,,,0.00,VWS V13.01,2013-04-24 00:30:00,
2013-04-23 20:32:00,50.3,42.3,27.22,NNE,26,0.0,2.0,74,0.00,,,0.00,VWS V13.01,2013-04-24 00:32:00,
2013-04-23 20:34:00,50.3,42.3,27.39,NNE,26,0.0,2.0,74,0.00,,,0.00,VWS V13.01,2013-04-24 00:34:00,
2013-04-23 20:35:00,50.2,42.2,27.39,NNE,26,0.0,2.0,74,0.00,,,0.00,VWS V13.01,2013-04-24 00:35:00,
2013-04-23 20:36:00,50.2,42.2,27.47,NNE,26,0.0,2.0,74,0.00,,,0.00,VWS V13.01,2013-04-24 00:36:00,
2013-04-23 20:37:00,50.2,42.2,27.47,NNE,25,0.0,2.0,74,0.00,,,0.00,VWS V13.01,2013-04-24 00:37:00,
2013-04-23 20:39:00,50.2,42.2,27.47,NNE,26,0.0,2.0,74,0.00,,,0.00,VWS V13.01,2013-04-24 00:39:00,
2013-04-23 20:40:00,50.1,42.2,27.47,NNE,26,0.0,2.0,74,0.00,,,0.00,VWS V13.01,2013-04-24 00:40:00,
2013-04-23 20:41:00,50.1,42.2,27.47,NNE,25,0.0,2.0,74,0.00,,,0.00,VWS V13.01,2013-04-24 00:41:00,
2013-04-23 20:43:00,50.1,42.2,27.47,NNE,25,0.0,2.0,74,0.00,,,0.00,VWS V13.01,2013-04-24 00:43:00,
2013-04-23 20:44:00,50.1,42.2,27.47,NNE,26,0.0,2.0,74,0.00,,,0.00,VWS V13.01,2013-04-24 00:44:00,
2013-04-23 20:45:00,50.1,42.2,27.47,NNE,26,0.0,2.0,74,0.00,,,0.00,VWS V13.01,2013-04-24 00:45:00,
2013-04-23 20:46:00,50.0,42.0,27.47,NNE,26,0.0,2.0,74,0.00,,,0.00,VWS V13.01,2013-04-24 00:46:00,
2013-04-23 20:48:00,50.0,42.0,27.47,NNE,26,0.0,2.0,74,0.00,,,0.00,VWS V13.01,2013-04-24 00:48:00,
2013-04-23 20:49:00,50.0,42.0,27.47,NNE,26,0.0,2.0,74,0.00,,,0.00,VWS V13.01,2013-04-24 00:49:00,
2013-04-23 20:50:00,50.0,42.0,27.47,NNE,26,0.0,2.0,74,0.00,,,0.00,VWS V13.01,2013-04-24 00:50:00,
2013-04-23 20:51:00,50.0,42.0,27.47,NNE,26,0.0,2.0,74,0.00,,,0.00,VWS V13.01,2013-04-24 00:51:00,
2013-04-23 20:53:00,50.0,42.4,27.47,NNE,26,0.0,2.0,75,0.00,,,0.00,VWS V13.01,2013-04-24 00:53:00,
2013-04-23 20:54:00,49.9,42.3,27.47,NNE,25,0.0,2.0,75,0.00,,,0.00,VWS V13.01,2013-04-24 00:54:00,
2013-04-23 20:55:00,49.9,42.3,27.47,NNE,26,0.0,2.0,75,0.00,,,0.00,VWS V13.01,2013-04-24 00:55:00,
2013-04-23 20:56:00,49.9,42.3,27.47,NNE,26,0.0,2.0,75,0.00,,,0.00,VWS V13.01,2013-04-24 00:56:00,
2013-04-23 20:58:00,49.9,42.3,27.39,NNE,26,0.0,2.0,75,0.00,,,0.00,VWS V13.01,2013-04-24 00:58:00,
2013-04-23 20:59:00,49.9,42.3,27.39,NNE,25,0.0,2.0,75,0.00,,,0.00,VWS V13.01,2013-04-24 00:59:00,
2013-04-23 21:00:00,49.9,42.3,27.39,NNE,25,0.0,2.0,75,0.00,,,0.00,VWS V13.01,2013-04-24 01:00:00,
2013-04-23 21:01:00,49.9,42.3,27.39,NNE,26,0.0,2.0,75,0.00,,,0.00,VWS V13.01,2013-04-24 01:01:00,
2013-04-23 21:02:00,49.9,42.3,27.39,NNE,25,0.0,2.0,75,0.00,,,0.00,VWS V13.01,2013-04-24 01:02:00,
2013-04-23 21:04:00,49.9,42.3,27.31,NNE,25,0.0,0.0,75,0.00,,,0.00,VWS V13.01,2013-04-24 01:04:00,
2013-04-23 21:05:00,49.9,42.3,27.31,NNE,26,0.0,0.0,75,0.00,,,0.00,VWS V13.01,2013-04-24 01:05:00,
2013-04-23 21:06:00,49.9,42.3,27.31,NNE,26,0.0,0.0,75,0.00,,,0.00,VWS V13.01,2013-04-24 01:06:00,
2013-04-23 21:07:00,49.9,42.3,27.31,NNE,26,0.0,0.0,75,0.00,,,0.00,VWS V13.01,2013-04-24 01:07:00,
2013-04-23 21:09:00,49.9,42.3,27.31,NNE,26,0.0,1.0,75,0.00,,,0.00,VWS V13.01,2013-04-24 01:09:00,
2013-04-23 21:11:00,49.9,42.3,27.31,NNE,25,1.0,1.0,75,0.00,,,0.00,VWS V13.01,2013-04-24 01:11:00,
2013-04-23 21:12:00,49.9,42.3,27.31,NNE,25,0.0,1.0,75,0.00,,,0.00,VWS V13.01,2013-04-24 01:12:00,
2013-04-23 21:14:00,49.9,42.3,27.31,NNE,26,0.0,3.0,75,0.00,,,0.00,VWS V13.01,2013-04-24 01:14:00,
2013-04-23 21:15:00,49.9,42.3,27.31,NNE,25,0.0,3.0,75,0.00,,,0.00,VWS V13.01,2013-04-24 01:15:00,
2013-04-23 21:16:00,49.9,42.3,27.31,NNE,25,0.0,3.0,75,0.00,,,0.00,VWS V13.01,2013-04-24 01:16:00,
2013-04-23 21:17:00,49.9,42.3,27.31,NNE,25,0.0,3.0,75,0.00,,,0.00,VWS V13.01,2013-04-24 01:17:00,
2013-04-23 21:19:00,49.9,42.3,27.31,NNE,25,0.0,3.0,75,0.00,,,0.00,VWS V13.01,2013-04-24 01:19:00,
2013-04-23 21:20:00,49.9,42.3,27.31,NNE,26,0.0,3.0,75,0.00,,,0.00,VWS V13.01,2013-04-24 01:20:00,
2013-04-23 21:21:00,49.9,42.3,27.31,NNE,25,0.0,3.0,75,0.00,,,0.00,VWS V13.01,2013-04-24 01:21:00,
2013-04-23 21:22:00,49.9,42.3,27.31,NNE,25,0.0,3.0,75,0.00,,,0.00,VWS V13.01,2013-04-24 01:22:00,
2013-04-23 21:24:00,49.9,42.3,27.31,NNE,26,0.0,3.0,75,0.00,,,0.00,VWS V13.01,2013-04-24 01:24:00,
2013-04-23 21:25:00,49.9,42.3,27.31,NNE,25,0.0,3.0,75,0.00,,,0.00,VWS V13.01,2013-04-24 01:25:00,
2013-04-23 21:26:00,49.9,42.3,27.31,NNE,25,0.0,3.0,75,0.00,,,0.00,VWS V13.01,2013-04-24 01:26:00,
2013-04-23 21:27:00,49.9,42.3,27.31,NNE,26,0.0,3.0,75,0.00,,,0.00,VWS V13.01,2013-04-24 01:27:00,
2013-04-23 21:29:00,49.9,42.3,27.31,NNE,25,0.0,3.0,75,0.00,,,0.00,VWS V13.01,2013-04-24 01:29:00,
2013-04-23 21:30:00,49.9,42.3,27.31,NNW,338,2.0,3.0,75,0.00,,,0.00,VWS V13.01,2013-04-24 01:30:00,
2013-04-23 21:31:00,49.9,42.3,27.31,NNW,337,0.0,4.0,75,0.00,,,0.00,VWS V13.01,2013-04-24 01:31:00,
2013-04-23 21:32:00,49.9,42.3,27.31,NNW,338,0.0,4.0,75,0.00,,,0.00,VWS V13.01,2013-04-24 01:32:00,
2013-04-23 21:34:00,49.9,42.3,27.31,NNW,338,0.0,4.0,75,0.00,,,0.00,VWS V13.01,2013-04-24 01:34:00,
2013-04-23 21:35:00,49.8,42.2,27.31,NNW,338,0.0,4.0,75,0.00,,,0.00,VWS V13.01,2013-04-24 01:35:00,
2013-04-23 21:36:00,49.8,42.2,27.31,NNW,338,0.0,4.0,75,0.00,,,0.00,VWS V13.01,2013-04-24 01:36:00,
2013-04-23 21:37:00,49.8,42.2,27.31,NNW,338,0.0,4.0,75,0.00,,,0.00,VWS V13.01,2013-04-24 01:37:00,
2013-04-23 21:38:00,49.8,42.2,27.31,NNW,337,0.0,4.0,75,0.00,,,0.00,VWS V13.01,2013-04-24 01:38:00,
2013-04-23 21:39:00,49.8,42.2,27.31,NNW,337,0.0,4.0,75,0.00,,,0.00,VWS V13.01,2013-04-24 01:39:00,
2013-04-23 21:40:00,49.7,42.1,27.31,NNW,338,0.0,4.0,75,0.00,,,0.00,VWS V13.01,2013-04-24 01:40:00,
2013-04-23 21:42:00,49.7,42.1,27.31,NNW,338,0.0,4.0,75,0.00,,,0.00,VWS V13.01,2013-04-24 01:42:00,
2013-04-23 21:43:00,49.7,42.1,27.31,NNW,338,0.0,4.0,75,0.00,,,0.00,VWS V13.01,2013-04-24 01:43:00,
2013-04-23 21:44:00,49.7,42.1,27.31,NNW,338,0.0,4.0,75,0.00,,,0.00,VWS V13.01,2013-04-24 01:44:00,
2013-04-23 21:45:00,49.7,42.1,27.31,NNW,338,0.0,4.0,75,0.00,,,0.00,VWS V13.01,2013-04-24 01:45:00,
2013-04-23 21:47:00,49.7,42.1,27.31,NNW,337,2.0,4.0,75,0.00,,,0.00,VWS V13.01,2013-04-24 01:47:00,
2013-04-23 21:48:00,49.6,42.0,27.31,NNW,338,1.0,4.0,75,0.00,,,0.00,VWS V13.01,2013-04-24 01:48:00,
2013-04-23 21:49:00,49.6,42.0,30.17,NNW,338,0.0,4.0,75,0.00,,,0.00,VWS V13.01,2013-04-24 01:49:00,
2013-04-23 21:50:00,49.6,42.0,30.17,NNW,338,0.0,4.0,75,0.00,,,0.00,VWS V13.01,2013-04-24 01:50:00,
2013-04-23 21:52:00,49.6,42.0,30.17,NNW,337,0.0,4.0,75,0.00,,,0.00,VWS V13.01,2013-04-24 01:52:00,
2013-04-23 21:53:00,49.6,42.0,30.17,NW,317,2.0,7.0,75,0.00,,,0.00,VWS V13.01,2013-04-24 01:53:00,
2013-04-23 21:54:00,49.5,41.9,30.17,NW,317,1.0,7.0,75,0.00,,,0.00,VWS V13.01,2013-04-24 01:54:00,
2013-04-23 21:55:00,49.5,41.9,30.17,NW,317,0.0,7.0,75,0.00,,,0.00,VWS V13.01,2013-04-24 01:55:00,
2013-04-23 21:57:00,49.5,41.9,30.17,NW,317,0.0,7.0,75,0.00,,,0.00,VWS V13.01,2013-04-24 01:57:00,
2013-04-23 21:58:00,49.5,41.9,30.17,NW,317,0.0,7.0,75,0.00,,,0.00,VWS V13.01,2013-04-24 01:58:00,
2013-04-23 21:59:00,49.5,41.9,30.17,WNW,294,2.0,7.0,75,0.00,,,0.00,VWS V13.01,2013-04-24 01:59:00,
2013-04-23 22:01:00,49.5,41.9,30.17,WNW,294,0.0,7.0,75,0.00,,,0.00,VWS V13.01,2013-04-24 02:01:00,
2013-04-23 22:02:00,49.4,41.8,30.17,NW,316,0.0,7.0,75,0.00,,,0.00,VWS V13.01,2013-04-24 02:02:00,
2013-04-23 22:03:00,49.4,41.8,30.17,NW,316,2.0,7.0,75,0.00,,,0.00,VWS V13.01,2013-04-24 02:03:00,
2013-04-23 22:05:00,49.4,41.8,30.17,NW,316,2.0,2.0,75,0.00,,,0.00,VWS V13.01,2013-04-24 02:05:00,
2013-04-23 22:06:00,49.4,41.8,30.17,NW,316,0.0,4.0,75,0.00,,,0.00,VWS V13.01,2013-04-24 02:06:00,
2013-04-23 22:08:00,49.4,41.8,30.17,NW,316,1.0,4.0,75,0.00,,,0.00,VWS V13.01,2013-04-24 02:08:00,
2013-04-23 22:12:00,49.3,41.7,30.17,NW,315,4.0,4.0,75,0.00,,,0.00,VWS V13.01,2013-04-24 02:12:00,
2013-04-23 22:14:00,49.3,41.7,30.17,NW,315,0.0,4.0,75,0.00,,,0.00,VWS V13.01,2013-04-24 02:14:00,
2013-04-23 22:15:00,49.3,41.7,30.17,NW,315,0.0,4.0,75,0.00,,,0.00,VWS V13.01,2013-04-24 02:15:00,
2013-04-23 22:19:00,49.2,41.6,30.17,NW,315,0.0,5.0,75,0.00,,,0.00,VWS V13.01,2013-04-24 02:19:00,
2013-04-23 22:20:00,49.2,41.6,30.17,NW,315,2.0,5.0,75,0.00,,,0.00,VWS V13.01,2013-04-24 02:20:00,
2013-04-23 22:22:00,49.2,41.6,30.17,NW,315,0.0,5.0,75,0.00,,,0.00,VWS V13.01,2013-04-24 02:22:00,
2013-04-23 22:26:00,49.2,41.6,30.17,NW,315,0.0,5.0,75,0.00,,,0.00,VWS V13.01,2013-04-24 02:26:00,
2013-04-23 22:27:00,49.2,41.6,30.17,NW,315,4.0,5.0,75,0.00,,,0.00,VWS V13.01,2013-04-24 02:27:00,
2013-04-23 22:30:00,49.1,41.5,30.17,NW,315,0.0,5.0,75,0.00,,,0.00,VWS V13.01,2013-04-24 02:30:00,
2013-04-23 22:32:00,49.1,41.5,30.17,NW,315,2.0,5.0,75,0.00,,,0.00,VWS V13.01,2013-04-24 02:32:00,
2013-04-23 22:36:00,48.9,41.3,30.17,NW,315,2.0,5.0,75,0.00,,,0.00,VWS V13.01,2013-04-24 02:36:00,
2013-04-23 22:37:00,48.9,41.3,30.17,NW,315,0.0,5.0,75,0.00,,,0.00,VWS V13.01,2013-04-24 02:37:00,
2013-04-23 22:42:00,48.7,41.1,30.17,NW,315,3.0,5.0,75,0.00,,,0.00,VWS V13.01,2013-04-24 02:42:00,
2013-04-23 22:44:00,48.6,41.4,30.17,NW,315,1.0,5.0,76,0.00,,,0.00,VWS V13.01,2013-04-24 02:44:00,
2013-04-23 22:46:00,48.6,41.4,30.17,NW,315,0.0,5.0,76,0.00,,,0.00,VWS V13.01,2013-04-24 02:46:00,
2013-04-23 22:49:00,48.5,41.3,30.17,NW,315,1.0,5.0,76,0.00,,,0.00,VWS V13.01,2013-04-24 02:49:00,
2013-04-23 22:50:00,48.4,41.2,30.17,NW,315,0.0,5.0,76,0.00,,,0.00,VWS V13.01,2013-04-24 02:50:00,
2013-04-23 22:52:00,48.3,41.1,30.17,NW,316,0.0,5.0,76,0.00,,,0.00,VWS V13.01,2013-04-24 02:52:00,
2013-04-23 22:53:00,48.3,41.1,30.17,NW,315,0.0,5.0,76,0.00,,,0.00,VWS V13.01,2013-04-24 02:53:00,
2013-04-23 22:54:00,48.3,41.1,30.17,NW,316,0.0,5.0,76,0.00,,,0.00,VWS V13.01,2013-04-24 02:54:00,
2013-04-23 22:57:00,48.2,41.0,30.17,NW,315,0.0,5.0,76,0.00,,,0.00,VWS V13.01,2013-04-24 02:57:00,
2013-04-23 22:59:00,48.1,40.9,30.17,NW,315,0.0,5.0,76,0.00,,,0.00,VWS V13.01,2013-04-24 02:59:00,
2013-04-23 23:01:00,48.0,40.8,30.17,NW,316,0.0,5.0,76,0.00,,,0.00,VWS V13.01,2013-04-24 03:01:00,
2013-04-23 23:04:00,47.9,40.7,30.17,NW,315,0.0,0.0,76,0.00,,,0.00,VWS V13.01,2013-04-24 03:04:00,
2013-04-23 23:08:00,47.8,40.6,30.17,NW,315,0.0,0.0,76,0.00,,,0.00,VWS V13.01,2013-04-24 03:08:00,
2013-04-23 23:09:00,47.7,40.5,30.17,NW,315,0.0,0.0,76,0.00,,,0.00,VWS V13.01,2013-04-24 03:09:00,
2013-04-23 23:10:00,47.7,40.8,30.17,NW,316,0.0,0.0,77,0.00,,,0.00,VWS V13.01,2013-04-24 03:10:00,
2013-04-23 23:15:00,47.6,40.8,30.17,NW,315,0.0,0.0,77,0.00,,,0.00,VWS V13.01,2013-04-24 03:15:00,
2013-04-23 23:17:00,47.5,40.7,30.17,NW,315,0.0,0.0,77,0.00,,,0.00,VWS V13.01,2013-04-24 03:17:00,
2013-04-23 23:20:00,47.4,40.6,30.17,NW,315,0.0,0.0,77,0.00,,,0.00,VWS V13.01,2013-04-24 03:20:00,
2013-04-23 23:22:00,47.4,40.6,30.17,NW,316,0.0,0.0,77,0.00,,,0.00,VWS V13.01,2013-04-24 03:22:00,
2013-04-23 23:23:00,47.3,40.5,30.17,NW,315,0.0,0.0,77,0.00,,,0.00,VWS V13.01,2013-04-24 03:23:00,
2013-04-23 23:28:00,47.2,40.4,30.17,NW,315,0.0,2.0,77,0.00,,,0.00,VWS V13.01,2013-04-24 03:28:00,
2013-04-23 23:31:00,47.2,40.7,30.17,NW,315,0.0,2.0,78,0.00,,,0.00,VWS V13.01,2013-04-24 03:31:00,
2013-04-23 23:32:00,47.1,40.6,30.17,NW,315,0.0,2.0,78,0.00,,,0.00,VWS V13.01,2013-04-24 03:32:00,
2013-04-23 23:34:00,47.1,40.6,30.17,NW,316,0.0,2.0,78,0.00,,,0.00,VWS V13.01,2013-04-24 03:34:00,
2013-04-23 23:37:00,47.0,40.5,30.17,NW,315,0.0,2.0,78,0.00,,,0.00,VWS V13.01,2013-04-24 03:37:00,
2013-04-23 23:38:00,47.0,40.5,30.17,NW,315,0.0,2.0,78,0.00,,,0.00,VWS V13.01,2013-04-24 03:38:00,
2013-04-23 23:40:00,46.9,40.4,30.17,NW,315,0.0,2.0,78,0.00,,,0.00,VWS V13.01,2013-04-24 03:40:00,
2013-04-23 23:43:00,46.8,40.3,30.17,NW,316,0.0,2.0,78,0.00,,,0.00,VWS V13.01,2013-04-24 03:43:00,
2013-04-23 23:44:00,46.8,40.3,30.17,NW,315,0.0,2.0,78,0.00,,,0.00,VWS V13.01,2013-04-24 03:44:00,
2013-04-23 23:50:00,46.6,40.1,30.17,NW,315,0.0,2.0,78,0.00,,,0.00,VWS V13.01,2013-04-24 03:50:00,
2013-04-23 23:51:00,46.6,40.1,27.47,NW,315,0.0,2.0,78,0.00,,,0.00,VWS V13.01,2013-04-24 03:51:00,
2013-04-23 23:53:00,46.5,40.0,27.47,NW,315,0.0,2.0,78,0.00,,,0.00,VWS V13.01,2013-04-24 03:53:00,
2013-04-23 23:57:00,46.5,40.3,27.47,NW,315,0.0,2.0,79,0.00,,,0.00,VWS V13.01,2013-04-24 03:57:00,
2013-04-23 23:59:00,46.4,40.2,27.47,NW,316,0.0,2.0,79,0.00,,,0.00,VWS V13.01,2013-04-24 03:59:00,